Time,TemperatureF,DewpointF,PressureIn,WindDirection,WindDirectionDegrees,WindSpeedMPH,WindSpeedGustMPH,Humidity,HourlyPrecipIn,Conditions,Clouds,dailyrainin,SoftwareType,DateUTC
2013-01-17 00:01:00,32.1,30.8,30.15,East,91,0.0,0.0,95,0.00,,---,0.00,VWS V14.01,2013-01-17 06:01:00,
2013-01-17 00:02:00,32.1,30.8,30.15,East,91,0.0,0.0,95,0.00,,---,0.00,VWS V14.01,2013-01-17 06:02:00,
2013-01-17 00:04:00,32.1,30.8,30.15,East,91,0.0,0.0,95,0.00,,---,0.00,VWS V14.01,2013-01-17 06:04:00,
2013-01-17 00:06:00,32.1,30.8,30.15,East,91,0.0,1.0,95,0.00,,---,0.00,VWS V14.01,2013-01-17 06:06:00,
2013-01-17 00:07:00,32.1,30.8,30.15,East,91,0.0,1.0,95,0.00,,---,0.00,VWS V14.01,2013-01-17 06:07:00,
2013-01-17 00:09:00,32.1,30.8,30.15,East,91,0.0,1.0,95,0.00,,---,0.00,VWS V14.01,2013-01-17 06:09:00,
2013-01-17 00:11:00,32.1,30.8,30.15,East,91,0.0,1.0,95,0.00,,---,0.00,VWS V14.01,2013-01-17 06:11:00,
2013-01-17 00:12:00,32.1,30.8,30.15,East,91,0.0,1.0,95,0.00,,---,0.00,VWS V14.01,2013-01-17 06:12:00,
2013-01-17 00:14:00,32.1,30.8,30.14,East,91,0.0,1.0,95,0.00,,---,0.00,VWS V14.01,2013-01-17 06:14:00,
2013-01-17 00:16:00,32.1,30.8,30.14,East,91,0.0,0.0,95,0.00,,---,0.00,VWS V14.01,2013-01-17 06:16:00,
2013-01-17 00:18:00,32.1,30.8,30.15,East,91,0.0,0.0,95,0.00,,---,0.00,VWS V14.01,2013-01-17 06:18:00,
2013-01-17 00:19:00,32.1,30.8,30.15,East,91,0.0,0.0,95,0.00,,---,0.00,VWS V14.01,2013-01-17 06:19:00,
2013-01-17 00:21:00,32.1,30.8,30.15,East,91,0.0,0.0,95,0.00,,---,0.00,VWS V14.01,2013-01-17 06:21:00,
2013-01-17 00:23:00,32.1,30.8,30.15,East,91,0.0,0.0,95,0.00,,---,0.00,VWS V14.01,2013-01-17 06:23:00,
2013-01-17 00:24:00,32.1,30.8,30.14,East,91,0.0,0.0,95,0.00,,---,0.00,VWS V14.01,2013-01-17 06:24:00,
2013-01-17 00:27:00,32.1,30.8,30.15,East,91,0.0,0.0,95,0.00,,---,0.00,VWS V14.01,2013-01-17 06:27:00,
2013-01-17 00:28:00,32.1,30.8,30.15,East,91,0.0,0.0,95,0.00,,---,0.00,VWS V14.01,2013-01-17 06:28:00,
2013-01-17 00:29:00,32.1,30.8,30.15,East,91,0.0,0.0,95,0.00,,---,0.00,VWS V14.01,2013-01-17 06:29:00,
2013-01-17 00:32:00,32.2,30.9,30.14,East,91,0.0,0.0,95,0.00,,---,0.00,VWS V14.01,2013-01-17 06:32:00,
2013-01-17 00:33:00,32.2,30.9,30.14,East,91,0.0,0.0,95,0.00,,---,0.00,VWS V14.01,2013-01-17 06:33:00,
2013-01-17 00:34:00,32.2,31.2,30.14,East,91,0.0,0.0,96,0.00,,---,0.00,VWS V14.01,2013-01-17 06:34:00,
2013-01-17 00:37:00,32.3,31.3,30.15,East,91,0.0,0.0,96,0.00,,---,0.00,VWS V14.01,2013-01-17 06:37:00,
2013-01-17 00:38:00,32.3,31.3,30.15,East,91,0.0,0.0,96,0.00,,---,0.00,VWS V14.01,2013-01-17 06:38:00,
2013-01-17 00:39:00,32.2,31.2,30.15,East,91,0.0,0.0,96,0.00,,---,0.00,VWS V14.01,2013-01-17 06:39:00,
2013-01-17 00:43:00,32.3,31.3,30.15,East,91,0.0,0.0,96,0.00,,---,0.00,VWS V14.01,2013-01-17 06:43:00,
2013-01-17 00:44:00,32.3,31.3,30.15,East,91,0.0,0.0,96,0.00,,---,0.00,VWS V14.01,2013-01-17 06:44:00,
2013-01-17 00:48:00,32.3,31.3,30.15,East,91,0.0,0.0,96,0.00,,---,0.00,VWS V14.01,2013-01-17 06:48:00,
2013-01-17 00:49:00,32.3,31.3,30.15,East,91,0.0,0.0,96,0.00,,---,0.00,VWS V14.01,2013-01-17 06:49:00,
2013-01-17 00:53:00,32.4,31.4,30.15,East,91,0.0,0.0,96,0.00,,---,0.00,VWS V14.01,2013-01-17 06:53:00,
2013-01-17 00:54:00,32.4,31.4,30.15,East,91,0.0,0.0,96,0.00,,---,0.00,VWS V14.01,2013-01-17 06:54:00,
2013-01-17 00:55:00,32.3,31.3,30.15,East,91,0.0,0.0,96,0.00,,---,0.00,VWS V14.01,2013-01-17 06:55:00,
2013-01-17 00:58:00,32.3,31.3,30.15,East,91,0.0,0.0,96,0.00,,---,0.00,VWS V14.01,2013-01-17 06:58:00,
2013-01-17 01:00:00,32.3,31.3,30.15,East,91,0.0,0.0,96,0.00,,---,0.00,VWS V14.01,2013-01-17 07:00:00,
2013-01-17 01:03:00,32.3,31.3,30.15,East,91,0.0,0.0,96,0.00,,---,0.00,VWS V14.01,2013-01-17 07:03:00,
2013-01-17 01:04:00,32.3,31.3,30.15,East,91,0.0,0.0,96,0.00,,---,0.00,VWS V14.01,2013-01-17 07:04:00,
2013-01-17 01:05:00,32.4,31.4,30.16,East,91,0.0,0.0,96,0.00,,---,0.00,VWS V14.01,2013-01-17 07:05:00,
2013-01-17 01:08:00,32.3,31.3,30.15,East,91,0.0,0.0,96,0.00,,---,0.00,VWS V14.01,2013-01-17 07:08:00,
2013-01-17 01:10:00,32.3,31.3,30.15,East,91,0.0,1.0,96,0.00,,---,0.00,VWS V14.01,2013-01-17 07:10:00,
2013-01-17 01:13:00,32.3,31.0,30.15,East,91,0.0,1.0,95,0.00,,---,0.00,VWS V14.01,2013-01-17 07:13:00,
2013-01-17 01:14:00,32.3,31.0,30.14,East,91,0.0,1.0,95,0.00,,---,0.00,VWS V14.01,2013-01-17 07:14:00,
2013-01-17 01:15:00,32.2,30.9,30.14,East,91,0.0,1.0,95,0.00,,---,0.00,VWS V14.01,2013-01-17 07:15:00,
2013-01-17 01:18:00,32.2,30.9,30.14,East,90,0.0,1.0,95,0.00,,---,0.00,VWS V14.01,2013-01-17 07:18:00,
2013-01-17 01:19:00,32.2,30.9,30.14,East,90,0.0,1.0,95,0.00,,---,0.00,VWS V14.01,2013-01-17 07:19:00,
2013-01-17 01:20:00,32.2,30.9,30.13,East,90,0.0,1.0,95,0.00,,---,0.00,VWS V14.01,2013-01-17 07:20:00,
2013-01-17 01:23:00,32.2,30.9,30.13,East,90,0.0,1.0,95,0.00,,---,0.00,VWS V14.01,2013-01-17 07:23:00,
2013-01-17 01:24:00,32.1,30.8,30.13,East,90,0.0,1.0,95,0.00,,---,0.00,VWS V14.01,2013-01-17 07:24:00,
2013-01-17 01:25:00,32.1,30.8,30.14,East,90,0.0,1.0,95,0.00,,---,0.00,VWS V14.01,2013-01-17 07:25:00,
2013-01-17 01:26:00,32.1,30.8,30.14,East,90,0.0,1.0,95,0.00,,---,0.00,VWS V14.01,2013-01-17 07:26:00,
2013-01-17 01:28:00,32.1,30.8,30.14,East,90,0.0,1.0,95,0.00,,---,0.00,VWS V14.01,2013-01-17 07:28:00,
2013-01-17 01:29:00,32.1,30.8,30.14,East,90,0.0,1.0,95,0.00,,---,0.00,VWS V14.01,2013-01-17 07:29:00,
2013-01-17 01:30:00,32.1,30.8,30.14,East,90,0.0,1.0,95,0.00,,---,0.00,VWS V14.01,2013-01-17 07:30:00,
2013-01-17 01:31:00,32.1,30.8,30.14,East,90,0.0,0.0,95,0.00,,---,0.00,VWS V14.01,2013-01-17 07:31:00,
2013-01-17 01:34:00,32.1,30.8,30.13,East,90,0.0,0.0,95,0.00,,---,0.00,VWS V14.01,2013-01-17 07:34:00,
2013-01-17 01:35:00,32.0,30.7,30.13,East,89,0.0,0.0,95,0.00,,---,0.00,VWS V14.01,2013-01-17 07:35:00,
2013-01-17 01:36:00,32.1,30.8,30.12,East,89,0.0,0.0,95,0.00,,---,0.00,VWS V14.01,2013-01-17 07:36:00,
2013-01-17 01:39:00,32.1,30.8,30.13,East,89,0.0,0.0,95,0.00,,---,0.00,VWS V14.01,2013-01-17 07:39:00,
2013-01-17 01:40:00,32.1,30.8,30.13,East,89,0.0,0.0,95,0.00,,---,0.00,VWS V14.01,2013-01-17 07:40:00,
2013-01-17 01:41:00,32.1,30.8,30.13,East,90,0.0,0.0,95,0.00,,---,0.00,VWS V14.01,2013-01-17 07:41:00,
2013-01-17 01:44:00,32.0,30.7,30.14,East,89,0.0,0.0,95,0.00,,---,0.00,VWS V14.01,2013-01-17 07:44:00,
2013-01-17 01:45:00,32.0,30.7,30.14,East,89,0.0,0.0,95,0.00,,---,0.00,VWS V14.01,2013-01-17 07:45:00,
2013-01-17 01:46:00,32.0,30.7,30.13,East,89,0.0,0.0,95,0.00,,---,0.00,VWS V14.01,2013-01-17 07:46:00,
2013-01-17 01:49:00,31.9,30.6,30.14,East,89,0.0,0.0,95,0.00,,---,0.00,VWS V14.01,2013-01-17 07:49:00,
2013-01-17 01:50:00,31.9,30.6,30.14,East,89,0.0,0.0,95,0.00,,---,0.00,VWS V14.01,2013-01-17 07:50:00,
2013-01-17 01:51:00,31.9,30.6,30.14,East,89,0.0,0.0,95,0.00,,---,0.00,VWS V14.01,2013-01-17 07:51:00,
2013-01-17 01:54:00,31.9,30.6,30.14,East,89,0.0,0.0,95,0.00,,---,0.00,VWS V14.01,2013-01-17 07:54:00,
2013-01-17 01:55:00,31.9,30.6,30.14,East,89,0.0,0.0,95,0.00,,---,0.00,VWS V14.01,2013-01-17 07:55:00,
2013-01-17 01:56:00,31.9,30.6,30.14,East,89,0.0,0.0,95,0.00,,---,0.00,VWS V14.01,2013-01-17 07:56:00,
2013-01-17 01:59:00,31.8,30.3,30.14,East,89,0.0,0.0,94,0.00,,---,0.00,VWS V14.01,2013-01-17 07:59:00,
2013-01-17 02:00:00,31.8,30.3,30.14,East,89,0.0,0.0,94,0.00,,---,0.00,VWS V14.01,2013-01-17 08:00:00,
2013-01-17 02:01:00,31.8,30.3,30.14,East,89,0.0,0.0,94,0.00,,---,0.00,VWS V14.01,2013-01-17 08:01:00,
2013-01-17 02:04:00,31.8,30.3,30.14,East,89,0.0,0.0,94,0.00,,---,0.00,VWS V14.01,2013-01-17 08:04:00,
2013-01-17 02:05:00,31.7,30.2,30.14,East,89,0.0,0.0,94,0.00,,---,0.00,VWS V14.01,2013-01-17 08:05:00,
2013-01-17 02:07:00,31.7,30.2,30.14,East,89,0.0,0.0,94,0.00,,---,0.00,VWS V14.01,2013-01-17 08:07:00,
2013-01-17 02:09:00,31.7,30.2,30.14,East,89,0.0,0.0,94,0.00,,---,0.00,VWS V14.01,2013-01-17 08:09:00,
2013-01-17 02:10:00,31.7,30.2,30.14,East,89,0.0,0.0,94,0.00,,---,0.00,VWS V14.01,2013-01-17 08:10:00,
2013-01-17 02:11:00,31.7,30.2,30.14,East,89,0.0,0.0,94,0.00,,---,0.00,VWS V14.01,2013-01-17 08:11:00,
2013-01-17 02:12:00,31.7,29.9,30.14,East,89,0.0,0.0,93,0.00,,---,0.00,VWS V14.01,2013-01-17 08:12:00,
2013-01-17 02:15:00,31.7,29.9,30.14,East,89,0.0,0.0,93,0.00,,---,0.00,VWS V14.01,2013-01-17 08:15:00,
2013-01-17 02:16:00,31.7,29.9,30.14,East,89,0.0,0.0,93,0.00,,---,0.00,VWS V14.01,2013-01-17 08:16:00,
2013-01-17 02:17:00,31.7,29.9,30.14,East,89,0.0,0.0,93,0.00,,---,0.00,VWS V14.01,2013-01-17 08:17:00,
2013-01-17 02:20:00,31.7,29.9,30.14,East,89,0.0,0.0,93,0.00,,---,0.00,VWS V14.01,2013-01-17 08:20:00,
2013-01-17 02:21:00,31.7,29.9,30.14,East,89,0.0,0.0,93,0.00,,---,0.00,VWS V14.01,2013-01-17 08:21:00,
2013-01-17 02:22:00,31.7,29.9,30.14,East,89,0.0,0.0,93,0.00,,---,0.00,VWS V14.01,2013-01-17 08:22:00,
2013-01-17 02:25:00,31.7,29.9,30.14,East,89,0.0,0.0,93,0.00,,---,0.00,VWS V14.01,2013-01-17 08:25:00,
2013-01-17 02:26:00,31.7,29.9,30.14,East,89,0.0,0.0,93,0.00,,---,0.00,VWS V14.01,2013-01-17 08:26:00,
2013-01-17 02:27:00,31.7,29.9,30.14,East,89,0.0,0.0,93,0.00,,---,0.00,VWS V14.01,2013-01-17 08:27:00,
2013-01-17 02:30:00,31.8,30.0,30.14,East,89,0.0,0.0,93,0.00,,---,0.00,VWS V14.01,2013-01-17 08:30:00,
2013-01-17 02:31:00,31.7,29.9,30.14,East,87,0.0,0.0,93,0.00,,---,0.00,VWS V14.01,2013-01-17 08:31:00,
2013-01-17 02:32:00,31.8,30.0,30.14,East,87,0.0,0.0,93,0.00,,---,0.00,VWS V14.01,2013-01-17 08:32:00,
2013-01-17 02:35:00,31.8,30.0,30.14,East,87,0.0,0.0,93,0.00,,---,0.00,VWS V14.01,2013-01-17 08:35:00,
2013-01-17 02:36:00,31.8,30.0,30.14,East,87,0.0,0.0,93,0.00,,---,0.00,VWS V14.01,2013-01-17 08:36:00,
2013-01-17 02:37:00,31.8,30.0,30.14,East,86,0.0,0.0,93,0.00,,---,0.00,VWS V14.01,2013-01-17 08:37:00,
2013-01-17 02:40:00,31.9,30.1,30.14,East,85,0.0,0.0,93,0.00,,---,0.00,VWS V14.01,2013-01-17 08:40:00,
2013-01-17 02:41:00,31.9,30.1,30.14,East,85,0.0,0.0,93,0.00,,---,0.00,VWS V14.01,2013-01-17 08:41:00,
2013-01-17 02:42:00,32.0,30.2,30.14,East,86,0.0,0.0,93,0.00,,---,0.00,VWS V14.01,2013-01-17 08:42:00,
2013-01-17 02:45:00,32.0,30.2,30.13,East,86,0.0,0.0,93,0.00,,---,0.00,VWS V14.01,2013-01-17 08:45:00,
2013-01-17 02:46:00,32.0,30.2,30.13,East,84,0.0,0.0,93,0.00,,---,0.00,VWS V14.01,2013-01-17 08:46:00,
2013-01-17 02:47:00,32.0,30.2,30.13,East,86,0.0,0.0,93,0.00,,---,0.00,VWS V14.01,2013-01-17 08:47:00,
2013-01-17 02:50:00,32.1,30.3,30.13,East,84,0.0,0.0,93,0.00,,---,0.00,VWS V14.01,2013-01-17 08:50:00,
2013-01-17 02:51:00,32.1,30.3,30.13,East,84,0.0,0.0,93,0.00,,---,0.00,VWS V14.01,2013-01-17 08:51:00,
2013-01-17 02:53:00,32.1,30.3,30.14,East,84,0.0,0.0,93,0.00,,---,0.00,VWS V14.01,2013-01-17 08:53:00,
2013-01-17 02:55:00,32.0,30.2,30.13,East,84,0.0,0.0,93,0.00,,---,0.00,VWS V14.01,2013-01-17 08:55:00,
2013-01-17 02:56:00,32.0,30.2,30.13,East,84,0.0,0.0,93,0.00,,---,0.00,VWS V14.01,2013-01-17 08:56:00,
2013-01-17 02:58:00,32.0,30.2,30.13,East,84,0.0,0.0,93,0.00,,---,0.00,VWS V14.01,2013-01-17 08:58:00,
2013-01-17 03:01:00,32.0,30.2,30.13,East,84,0.0,0.0,93,0.00,,---,0.00,VWS V14.01,2013-01-17 09:01:00,
2013-01-17 03:03:00,32.0,30.2,30.13,East,84,0.0,0.0,93,0.00,,---,0.00,VWS V14.01,2013-01-17 09:03:00,
2013-01-17 03:06:00,32.0,30.2,30.13,East,82,0.0,0.0,93,0.00,,---,0.00,VWS V14.01,2013-01-17 09:06:00,
2013-01-17 03:07:00,32.1,30.3,30.13,East,83,0.0,0.0,93,0.00,,---,0.00,VWS V14.01,2013-01-17 09:07:00,
2013-01-17 03:08:00,32.1,30.3,30.13,East,83,0.0,0.0,93,0.00,,---,0.00,VWS V14.01,2013-01-17 09:08:00,
2013-01-17 03:11:00,32.1,30.3,30.13,East,83,0.0,0.0,93,0.00,,---,0.00,VWS V14.01,2013-01-17 09:11:00,
2013-01-17 03:12:00,32.1,30.3,30.13,East,83,0.0,0.0,93,0.00,,---,0.00,VWS V14.01,2013-01-17 09:12:00,
2013-01-17 03:13:00,32.1,30.3,30.13,East,83,0.0,0.0,93,0.00,,---,0.00,VWS V14.01,2013-01-17 09:13:00,
2013-01-17 03:16:00,32.1,30.3,30.13,East,82,0.0,0.0,93,0.00,,---,0.00,VWS V14.01,2013-01-17 09:16:00,
2013-01-17 03:17:00,32.1,30.3,30.13,East,82,0.0,0.0,93,0.00,,---,0.00,VWS V14.01,2013-01-17 09:17:00,
2013-01-17 03:18:00,32.1,30.3,30.13,East,82,0.0,0.0,93,0.00,,---,0.00,VWS V14.01,2013-01-17 09:18:00,
2013-01-17 03:21:00,32.1,30.3,30.13,NNE,15,0.0,0.0,93,0.00,,---,0.00,VWS V14.01,2013-01-17 09:21:00,
2013-01-17 03:22:00,32.1,30.3,30.13,WNW,301,0.0,0.0,93,0.00,,---,0.00,VWS V14.01,2013-01-17 09:22:00,
2013-01-17 03:23:00,32.1,30.3,30.13,WNW,301,0.0,0.0,93,0.00,,---,0.00,VWS V14.01,2013-01-17 09:23:00,
2013-01-17 03:26:00,32.2,30.4,30.14,WNW,301,0.0,0.0,93,0.00,,---,0.00,VWS V14.01,2013-01-17 09:26:00,
2013-01-17 03:27:00,32.2,30.4,30.14,WNW,301,0.0,0.0,93,0.00,,---,0.00,VWS V14.01,2013-01-17 09:27:00,
2013-01-17 03:28:00,32.2,30.4,30.14,WNW,301,0.0,0.0,93,0.00,,---,0.00,VWS V14.01,2013-01-17 09:28:00,
2013-01-17 03:31:00,32.2,30.4,30.14,WNW,301,0.0,0.0,93,0.00,,---,0.00,VWS V14.01,2013-01-17 09:31:00,
2013-01-17 03:32:00,32.2,30.4,30.14,WNW,301,0.0,0.0,93,0.00,,---,0.00,VWS V14.01,2013-01-17 09:32:00,
2013-01-17 03:33:00,32.2,30.4,30.14,WNW,301,0.0,0.0,93,0.00,,---,0.00,VWS V14.01,2013-01-17 09:33:00,
2013-01-17 03:36:00,32.1,30.3,30.14,WNW,301,0.0,0.0,93,0.00,,---,0.00,VWS V14.01,2013-01-17 09:36:00,
2013-01-17 03:37:00,32.2,30.4,30.14,WNW,301,0.0,0.0,93,0.00,,---,0.00,VWS V14.01,2013-01-17 09:37:00,
2013-01-17 03:38:00,32.2,30.4,30.14,WNW,301,0.0,0.0,93,0.00,,---,0.00,VWS V14.01,2013-01-17 09:38:00,
2013-01-17 03:41:00,32.3,30.5,30.14,WNW,294,1.0,2.0,93,0.00,,---,0.00,VWS V14.01,2013-01-17 09:41:00,
2013-01-17 03:42:00,32.4,30.6,30.14,WNW,287,0.0,2.0,93,0.00,,---,0.00,VWS V14.01,2013-01-17 09:42:00,
2013-01-17 03:43:00,32.4,30.6,30.14,WNW,287,1.0,2.0,93,0.00,,---,0.00,VWS V14.01,2013-01-17 09:43:00,
2013-01-17 03:46:00,32.5,30.4,30.14,WNW,285,0.0,1.0,92,0.00,,---,0.00,VWS V14.01,2013-01-17 09:46:00,
2013-01-17 03:47:00,32.5,30.4,30.14,WNW,285,0.0,1.0,92,0.00,,---,0.00,VWS V14.01,2013-01-17 09:47:00,
2013-01-17 03:48:00,32.5,30.4,30.14,WNW,284,0.0,1.0,92,0.00,,---,0.00,VWS V14.01,2013-01-17 09:48:00,
2013-01-17 03:51:00,32.5,30.4,30.15,WNW,282,1.0,1.0,92,0.00,,---,0.00,VWS V14.01,2013-01-17 09:51:00,
2013-01-17 03:52:00,32.4,30.3,30.15,WNW,294,0.0,2.0,92,0.00,,---,0.00,VWS V14.01,2013-01-17 09:52:00,
2013-01-17 03:53:00,32.5,30.4,30.15,WNW,289,0.0,2.0,92,0.00,,---,0.00,VWS V14.01,2013-01-17 09:53:00,
2013-01-17 03:56:00,32.4,30.3,30.15,West,280,0.0,3.0,92,0.00,,---,0.00,VWS V14.01,2013-01-17 09:56:00,
2013-01-17 03:57:00,32.5,30.4,30.15,WNW,283,0.0,3.0,92,0.00,,---,0.00,VWS V14.01,2013-01-17 09:57:00,
2013-01-17 03:58:00,32.4,30.3,30.15,WNW,283,0.0,3.0,92,0.00,,---,0.00,VWS V14.01,2013-01-17 09:58:00,
2013-01-17 03:59:00,32.5,30.2,30.16,WNW,298,2.0,3.0,91,0.00,,---,0.00,VWS V14.01,2013-01-17 09:59:00,
2013-01-17 04:01:00,32.4,30.1,30.16,WNW,292,1.0,1.0,91,0.00,,---,0.00,VWS V14.01,2013-01-17 10:01:00,
2013-01-17 04:03:00,32.4,30.1,30.16,WNW,291,0.0,1.0,91,0.00,,---,0.00,VWS V14.01,2013-01-17 10:03:00,
2013-01-17 04:04:00,32.4,30.1,30.16,WNW,292,0.0,1.0,91,0.00,,---,0.00,VWS V14.01,2013-01-17 10:04:00,
2013-01-17 04:06:00,32.4,30.1,30.16,WNW,291,0.0,1.0,91,0.00,,---,0.00,VWS V14.01,2013-01-17 10:06:00,
2013-01-17 04:08:00,32.4,30.1,30.16,WNW,291,0.0,1.0,91,0.00,,---,0.00,VWS V14.01,2013-01-17 10:08:00,
2013-01-17 04:09:00,32.4,30.1,30.16,WNW,291,0.0,1.0,91,0.00,,---,0.00,VWS V14.01,2013-01-17 10:09:00,
2013-01-17 04:12:00,32.3,30.0,30.16,WNW,292,0.0,0.0,91,0.00,,---,0.00,VWS V14.01,2013-01-17 10:12:00,
2013-01-17 04:13:00,32.3,30.0,30.16,WNW,292,0.0,0.0,91,0.00,,---,0.00,VWS V14.01,2013-01-17 10:13:00,
2013-01-17 04:14:00,32.2,29.9,30.16,WNW,292,1.0,1.0,91,0.00,,---,0.00,VWS V14.01,2013-01-17 10:14:00,
2013-01-17 04:17:00,32.2,29.9,30.16,WNW,290,0.0,1.0,91,0.00,,---,0.00,VWS V14.01,2013-01-17 10:17:00,
2013-01-17 04:18:00,32.2,29.9,30.16,WNW,290,0.0,1.0,91,0.00,,---,0.00,VWS V14.01,2013-01-17 10:18:00,
2013-01-17 04:19:00,32.2,29.9,30.16,WNW,285,2.0,2.0,91,0.00,,---,0.00,VWS V14.01,2013-01-17 10:19:00,
2013-01-17 04:22:00,32.3,29.7,30.16,WNW,285,1.0,2.0,90,0.00,,---,0.00,VWS V14.01,2013-01-17 10:22:00,
2013-01-17 04:23:00,32.3,29.7,30.16,WNW,285,0.0,2.0,90,0.00,,---,0.00,VWS V14.01,2013-01-17 10:23:00,
2013-01-17 04:24:00,32.3,29.7,30.16,WNW,285,0.0,2.0,90,0.00,,---,0.00,VWS V14.01,2013-01-17 10:24:00,
2013-01-17 04:27:00,32.4,29.8,30.16,WNW,285,0.0,2.0,90,0.00,,---,0.00,VWS V14.01,2013-01-17 10:27:00,
2013-01-17 04:28:00,32.3,29.7,30.16,WNW,285,1.0,2.0,90,0.00,,---,0.00,VWS V14.01,2013-01-17 10:28:00,
2013-01-17 04:29:00,32.4,29.8,30.16,WNW,285,1.0,2.0,90,0.00,,---,0.00,VWS V14.01,2013-01-17 10:29:00,
2013-01-17 04:32:00,32.3,30.0,30.16,WNW,286,0.0,0.0,91,0.00,,---,0.00,VWS V14.01,2013-01-17 10:32:00,
2013-01-17 04:33:00,32.3,30.0,30.15,WNW,286,0.0,0.0,91,0.00,,---,0.00,VWS V14.01,2013-01-17 10:33:00,
2013-01-17 04:34:00,32.3,30.0,30.16,WNW,286,0.0,0.0,91,0.00,,---,0.00,VWS V14.01,2013-01-17 10:34:00,
2013-01-17 04:37:00,32.3,30.0,30.16,WNW,285,0.0,0.0,91,0.00,,---,0.00,VWS V14.01,2013-01-17 10:37:00,
2013-01-17 04:38:00,32.3,30.0,30.16,WNW,286,0.0,0.0,91,0.00,,---,0.00,VWS V14.01,2013-01-17 10:38:00,
2013-01-17 04:39:00,32.3,30.0,30.16,WNW,286,0.0,0.0,91,0.00,,---,0.00,VWS V14.01,2013-01-17 10:39:00,
2013-01-17 04:42:00,32.3,30.0,30.16,WNW,285,0.0,1.0,91,0.00,,---,0.00,VWS V14.01,2013-01-17 10:42:00,
2013-01-17 04:43:00,32.2,29.9,30.16,WNW,285,0.0,1.0,91,0.00,,---,0.00,VWS V14.01,2013-01-17 10:43:00,
2013-01-17 04:44:00,32.3,30.0,30.16,WNW,285,0.0,1.0,91,0.00,,---,0.00,VWS V14.01,2013-01-17 10:44:00,
2013-01-17 04:47:00,32.3,30.0,30.16,WNW,285,0.0,0.0,91,0.00,,---,0.00,VWS V14.01,2013-01-17 10:47:00,
2013-01-17 04:49:00,32.3,30.0,30.16,WNW,286,0.0,0.0,91,0.00,,---,0.00,VWS V14.01,2013-01-17 10:49:00,
2013-01-17 04:52:00,32.3,30.0,30.16,WNW,285,0.0,0.0,91,0.00,,---,0.00,VWS V14.01,2013-01-17 10:52:00,
2013-01-17 04:54:00,32.3,30.0,30.16,WNW,285,0.0,0.0,91,0.00,,---,0.00,VWS V14.01,2013-01-17 10:54:00,
2013-01-17 04:55:00,32.3,30.0,30.16,WNW,285,0.0,0.0,91,0.00,,---,0.00,VWS V14.01,2013-01-17 10:55:00,
2013-01-17 04:57:00,32.2,30.1,30.16,WNW,285,0.0,0.0,92,0.00,,---,0.00,VWS V14.01,2013-01-17 10:57:00,
2013-01-17 04:59:00,32.2,30.1,30.16,WNW,285,0.0,0.0,92,0.00,,---,0.00,VWS V14.01,2013-01-17 10:59:00,
2013-01-17 05:00:00,32.2,30.1,30.16,WNW,285,0.0,0.0,92,0.00,,---,0.00,VWS V14.01,2013-01-17 11:00:00,
2013-01-17 05:02:00,32.1,30.0,30.16,WNW,285,0.0,0.0,92,0.00,,---,0.00,VWS V14.01,2013-01-17 11:02:00,
2013-01-17 05:04:00,32.1,30.0,30.16,WNW,285,0.0,0.0,92,0.00,,---,0.00,VWS V14.01,2013-01-17 11:04:00,
2013-01-17 05:05:00,32.1,30.0,30.16,WNW,285,0.0,0.0,92,0.00,,---,0.00,VWS V14.01,2013-01-17 11:05:00,
2013-01-17 05:08:00,32.0,29.7,30.16,WNW,285,0.0,0.0,91,0.00,,---,0.00,VWS V14.01,2013-01-17 11:08:00,
2013-01-17 05:09:00,32.0,29.7,30.15,WNW,285,0.0,0.0,91,0.00,,---,0.00,VWS V14.01,2013-01-17 11:09:00,
2013-01-17 05:10:00,32.0,29.7,30.15,WNW,285,0.0,0.0,91,0.00,,---,0.00,VWS V14.01,2013-01-17 11:10:00,
2013-01-17 05:13:00,31.9,29.6,30.16,WNW,285,0.0,0.0,91,0.00,,---,0.00,VWS V14.01,2013-01-17 11:13:00,
2013-01-17 05:14:00,31.9,29.6,30.16,WNW,285,0.0,0.0,91,0.00,,---,0.00,VWS V14.01,2013-01-17 11:14:00,
2013-01-17 05:15:00,31.9,29.6,30.16,WNW,286,0.0,0.0,91,0.00,,---,0.00,VWS V14.01,2013-01-17 11:15:00,
2013-01-17 05:18:00,32.0,29.7,30.16,WNW,285,0.0,0.0,91,0.00,,---,0.00,VWS V14.01,2013-01-17 11:18:00,
2013-01-17 05:20:00,32.0,29.7,30.15,WNW,285,0.0,0.0,91,0.00,,---,0.00,VWS V14.01,2013-01-17 11:20:00,
2013-01-17 05:23:00,32.0,29.7,30.15,WNW,285,0.0,0.0,91,0.00,,---,0.00,VWS V14.01,2013-01-17 11:23:00,
2013-01-17 05:25:00,32.0,29.7,30.15,WNW,285,0.0,0.0,91,0.00,,---,0.00,VWS V14.01,2013-01-17 11:25:00,
2013-01-17 05:28:00,32.0,29.7,30.15,WNW,285,0.0,0.0,91,0.00,,---,0.00,VWS V14.01,2013-01-17 11:28:00,
2013-01-17 05:30:00,32.0,29.7,30.15,WNW,285,0.0,0.0,91,0.00,,---,0.00,VWS V14.01,2013-01-17 11:30:00,
2013-01-17 05:33:00,32.0,29.7,30.15,WNW,285,0.0,0.0,91,0.00,,---,0.00,VWS V14.01,2013-01-17 11:33:00,
2013-01-17 05:35:00,32.0,29.7,30.16,WNW,285,0.0,0.0,91,0.00,,---,0.00,VWS V14.01,2013-01-17 11:35:00,
2013-01-17 05:38:00,32.0,29.7,30.16,WNW,285,0.0,0.0,91,0.00,,---,0.00,VWS V14.01,2013-01-17 11:38:00,
2013-01-17 05:40:00,32.0,29.7,30.16,WNW,286,0.0,0.0,91,0.00,,---,0.00,VWS V14.01,2013-01-17 11:40:00,
2013-01-17 05:43:00,31.9,29.6,30.16,WNW,285,0.0,0.0,91,0.00,,---,0.00,VWS V14.01,2013-01-17 11:43:00,
2013-01-17 05:45:00,32.0,29.7,30.15,WNW,286,0.0,0.0,91,0.00,,---,0.00,VWS V14.01,2013-01-17 11:45:00,
2013-01-17 05:48:00,31.9,29.6,30.16,WNW,285,0.0,0.0,91,0.00,,---,0.00,VWS V14.01,2013-01-17 11:48:00,
2013-01-17 05:50:00,31.9,29.6,30.16,WNW,285,0.0,0.0,91,0.00,,---,0.00,VWS V14.01,2013-01-17 11:50:00,
2013-01-17 05:51:00,31.9,29.6,30.16,WNW,285,0.0,0.0,91,0.00,,---,0.00,VWS V14.01,2013-01-17 11:51:00,
2013-01-17 05:53:00,31.9,29.6,30.16,WNW,285,0.0,0.0,91,0.00,,---,0.00,VWS V14.01,2013-01-17 11:53:00,
2013-01-17 05:55:00,31.9,29.6,30.16,WNW,285,0.0,0.0,91,0.00,,---,0.00,VWS V14.01,2013-01-17 11:55:00,
2013-01-17 05:56:00,31.9,29.6,30.16,WNW,286,0.0,0.0,91,0.00,,---,0.00,VWS V14.01,2013-01-17 11:56:00,
2013-01-17 05:58:00,31.9,29.6,30.16,WNW,285,0.0,0.0,91,0.00,,---,0.00,VWS V14.01,2013-01-17 11:58:00,
2013-01-17 06:01:00,31.8,29.5,30.16,WNW,285,0.0,0.0,91,0.00,,---,0.00,VWS V14.01,2013-01-17 12:01:00,
2013-01-17 06:02:00,31.8,29.5,30.16,WNW,285,0.0,0.0,91,0.00,,---,0.00,VWS V14.01,2013-01-17 12:02:00,
2013-01-17 06:03:00,31.8,29.5,30.16,WNW,285,0.0,0.0,91,0.00,,---,0.00,VWS V14.01,2013-01-17 12:03:00,
2013-01-17 06:06:00,31.8,29.5,30.16,WNW,285,0.0,0.0,91,0.00,,---,0.00,VWS V14.01,2013-01-17 12:06:00,
2013-01-17 06:07:00,31.8,29.5,30.16,WNW,285,0.0,0.0,91,0.00,,---,0.00,VWS V14.01,2013-01-17 12:07:00,
2013-01-17 06:08:00,31.8,29.5,30.16,WNW,285,0.0,0.0,91,0.00,,---,0.00,VWS V14.01,2013-01-17 12:08:00,
2013-01-17 06:11:00,31.8,29.2,30.16,WNW,285,0.0,0.0,90,0.00,,---,0.00,VWS V14.01,2013-01-17 12:11:00,
2013-01-17 06:12:00,31.8,29.2,30.16,WNW,285,0.0,0.0,90,0.00,,---,0.00,VWS V14.01,2013-01-17 12:12:00,
2013-01-17 06:13:00,31.8,29.2,30.16,WNW,285,0.0,0.0,90,0.00,,---,0.00,VWS V14.01,2013-01-17 12:13:00,
2013-01-17 06:16:00,31.8,29.2,30.17,WNW,285,0.0,0.0,90,0.00,,---,0.00,VWS V14.01,2013-01-17 12:16:00,
2013-01-17 06:17:00,31.8,29.2,30.17,WNW,286,0.0,0.0,90,0.00,,---,0.00,VWS V14.01,2013-01-17 12:17:00,
2013-01-17 06:18:00,31.8,29.2,30.17,WNW,285,0.0,0.0,90,0.00,,---,0.00,VWS V14.01,2013-01-17 12:18:00,
2013-01-17 06:21:00,31.8,29.2,30.17,WNW,285,0.0,0.0,90,0.00,,---,0.00,VWS V14.01,2013-01-17 12:21:00,
2013-01-17 06:22:00,31.8,29.2,30.17,WNW,285,0.0,0.0,90,0.00,,---,0.00,VWS V14.01,2013-01-17 12:22:00,
2013-01-17 06:23:00,31.8,29.2,30.17,WNW,286,0.0,0.0,90,0.00,,---,0.00,VWS V14.01,2013-01-17 12:23:00,
2013-01-17 06:26:00,31.8,29.2,30.17,WNW,285,0.0,0.0,90,0.00,,---,0.00,VWS V14.01,2013-01-17 12:26:00,
2013-01-17 06:27:00,31.8,29.2,30.16,WNW,285,0.0,0.0,90,0.00,,---,0.00,VWS V14.01,2013-01-17 12:27:00,
2013-01-17 06:28:00,31.8,29.2,30.17,WNW,285,0.0,0.0,90,0.00,,---,0.00,VWS V14.01,2013-01-17 12:28:00,
2013-01-17 06:31:00,31.9,29.3,30.17,WNW,285,0.0,0.0,90,0.00,,---,0.00,VWS V14.01,2013-01-17 12:31:00,
2013-01-17 06:32:00,31.9,29.3,30.17,WNW,285,0.0,0.0,90,0.00,,---,0.00,VWS V14.01,2013-01-17 12:32:00,
2013-01-17 06:33:00,31.9,29.3,30.17,WNW,285,0.0,0.0,90,0.00,,---,0.00,VWS V14.01,2013-01-17 12:33:00,
2013-01-17 06:36:00,31.9,29.3,30.17,WNW,285,0.0,0.0,90,0.00,,---,0.00,VWS V14.01,2013-01-17 12:36:00,
2013-01-17 06:37:00,31.9,29.3,30.17,WNW,285,0.0,0.0,90,0.00,,---,0.00,VWS V14.01,2013-01-17 12:37:00,
2013-01-17 06:38:00,31.8,29.2,30.17,WNW,285,0.0,0.0,90,0.00,,---,0.00,VWS V14.01,2013-01-17 12:38:00,
2013-01-17 06:39:00,31.8,29.2,30.17,WNW,285,0.0,0.0,90,0.00,,---,0.00,VWS V14.01,2013-01-17 12:39:00,
2013-01-17 06:41:00,31.8,29.2,30.17,WNW,285,0.0,0.0,90,0.00,,---,0.00,VWS V14.01,2013-01-17 12:41:00,
2013-01-17 06:42:00,31.8,29.2,30.17,WNW,285,0.0,0.0,90,0.00,,---,0.00,VWS V14.01,2013-01-17 12:42:00,
2013-01-17 06:43:00,31.8,29.2,30.17,WNW,286,0.0,0.0,90,0.00,,---,0.00,VWS V14.01,2013-01-17 12:43:00,
2013-01-17 06:44:00,31.8,29.2,30.17,WNW,285,0.0,0.0,90,0.00,,---,0.00,VWS V14.01,2013-01-17 12:44:00,
2013-01-17 06:46:00,31.8,29.2,30.17,WNW,285,0.0,0.0,90,0.00,,---,0.00,VWS V14.01,2013-01-17 12:46:00,
2013-01-17 06:47:00,31.8,29.2,30.17,WNW,285,0.0,0.0,90,0.00,,---,0.00,VWS V14.01,2013-01-17 12:47:00,
2013-01-17 06:48:00,31.8,29.2,30.17,WNW,285,0.0,0.0,90,0.00,,---,0.00,VWS V14.01,2013-01-17 12:48:00,
2013-01-17 06:49:00,31.8,29.2,30.17,WNW,285,0.0,0.0,90,0.00,,---,0.00,VWS V14.01,2013-01-17 12:49:00,
2013-01-17 06:51:00,31.8,29.2,30.18,WNW,285,0.0,0.0,90,0.00,,---,0.00,VWS V14.01,2013-01-17 12:51:00,
2013-01-17 06:52:00,31.8,29.2,30.18,WNW,285,0.0,0.0,90,0.00,,---,0.00,VWS V14.01,2013-01-17 12:52:00,
2013-01-17 06:54:00,31.8,29.2,30.18,WNW,285,0.0,0.0,90,0.00,,---,0.00,VWS V14.01,2013-01-17 12:54:00,
2013-01-17 06:57:00,31.8,29.2,30.18,WNW,285,0.0,0.0,90,0.00,,---,0.00,VWS V14.01,2013-01-17 12:57:00,
2013-01-17 06:59:00,31.8,29.2,30.18,WNW,285,0.0,0.0,90,0.00,,---,0.00,VWS V14.01,2013-01-17 12:59:00,
2013-01-17 07:02:00,31.9,29.3,30.18,WNW,288,0.0,0.0,90,0.00,,---,0.00,VWS V14.01,2013-01-17 13:02:00,
2013-01-17 07:04:00,31.9,29.3,30.18,WNW,287,0.0,0.0,90,0.00,,---,0.00,VWS V14.01,2013-01-17 13:04:00,
2013-01-17 07:07:00,31.9,29.3,30.19,WNW,287,0.0,0.0,90,0.00,,---,0.00,VWS V14.01,2013-01-17 13:07:00,
2013-01-17 07:09:00,31.9,29.3,30.19,WNW,287,0.0,0.0,90,0.00,,---,0.00,VWS V14.01,2013-01-17 13:09:00,
2013-01-17 07:12:00,32.0,29.4,30.19,WNW,287,0.0,0.0,90,0.00,,---,0.00,VWS V14.01,2013-01-17 13:12:00,
2013-01-17 07:14:00,32.0,29.4,30.19,WNW,287,0.0,0.0,90,0.00,,---,0.00,VWS V14.01,2013-01-17 13:14:00,
2013-01-17 07:17:00,32.0,29.4,30.19,WNW,287,0.0,0.0,90,0.00,,---,0.00,VWS V14.01,2013-01-17 13:17:00,
2013-01-17 07:19:00,32.0,29.4,30.19,WNW,287,0.0,0.0,90,0.00,,---,0.00,VWS V14.01,2013-01-17 13:19:00,
2013-01-17 07:22:00,32.0,29.4,30.19,WNW,288,0.0,0.0,90,0.00,,---,0.00,VWS V14.01,2013-01-17 13:22:00,
2013-01-17 07:24:00,32.0,29.4,30.19,WNW,287,0.0,0.0,90,0.00,,---,0.00,VWS V14.01,2013-01-17 13:24:00,
2013-01-17 07:25:00,32.0,29.4,30.19,WNW,288,0.0,0.0,90,0.00,,---,0.00,VWS V14.01,2013-01-17 13:25:00,
2013-01-17 07:27:00,32.0,29.4,30.19,WNW,287,0.0,0.0,90,0.00,,---,0.00,VWS V14.01,2013-01-17 13:27:00,
2013-01-17 07:29:00,32.0,29.4,30.19,WNW,287,0.0,0.0,90,0.00,,---,0.00,VWS V14.01,2013-01-17 13:29:00,
2013-01-17 07:30:00,32.1,29.5,30.19,WNW,287,0.0,0.0,90,0.00,,---,0.00,VWS V14.01,2013-01-17 13:30:00,
2013-01-17 07:32:00,32.0,29.4,30.20,WNW,287,0.0,0.0,90,0.00,,---,0.00,VWS V14.01,2013-01-17 13:32:00,
2013-01-17 07:34:00,32.1,29.8,30.20,WNW,287,0.0,0.0,91,0.00,,---,0.00,VWS V14.01,2013-01-17 13:34:00,
2013-01-17 07:35:00,32.1,29.8,30.19,WNW,287,0.0,0.0,91,0.00,,---,0.00,VWS V14.01,2013-01-17 13:35:00,
2013-01-17 07:37:00,32.1,29.8,30.19,WNW,288,0.0,0.0,91,0.00,,---,0.00,VWS V14.01,2013-01-17 13:37:00,
2013-01-17 07:39:00,32.1,29.8,30.19,WNW,287,0.0,0.0,91,0.00,,---,0.00,VWS V14.01,2013-01-17 13:39:00,
2013-01-17 07:40:00,32.1,29.8,30.19,WNW,287,0.0,0.0,91,0.00,,---,0.00,VWS V14.01,2013-01-17 13:40:00,
2013-01-17 07:42:00,32.1,29.8,30.19,WNW,288,0.0,0.0,91,0.00,,---,0.00,VWS V14.01,2013-01-17 13:42:00,
2013-01-17 07:43:00,32.1,29.8,30.19,WNW,287,0.0,0.0,91,0.00,,---,0.00,VWS V14.01,2013-01-17 13:43:00,
2013-01-17 07:44:00,32.1,29.5,30.19,WNW,287,0.0,0.0,90,0.00,,---,0.00,VWS V14.01,2013-01-17 13:44:00,
2013-01-17 07:45:00,32.1,29.5,30.19,WNW,288,0.0,0.0,90,0.00,,---,0.00,VWS V14.01,2013-01-17 13:45:00,
2013-01-17 07:48:00,32.1,29.8,30.20,WNW,287,0.0,0.0,91,0.00,,---,0.00,VWS V14.01,2013-01-17 13:48:00,
2013-01-17 07:49:00,32.2,29.9,30.20,WNW,287,0.0,0.0,91,0.00,,---,0.00,VWS V14.01,2013-01-17 13:49:00,
2013-01-17 07:50:00,32.1,29.8,30.20,WNW,287,0.0,0.0,91,0.00,,---,0.00,VWS V14.01,2013-01-17 13:50:00,
2013-01-17 07:53:00,32.2,29.9,30.20,WNW,287,0.0,0.0,91,0.00,,---,0.00,VWS V14.01,2013-01-17 13:53:00,
2013-01-17 07:54:00,32.2,29.9,30.20,WNW,288,0.0,0.0,91,0.00,,---,0.00,VWS V14.01,2013-01-17 13:54:00,
2013-01-17 07:56:00,32.2,29.9,30.20,WNW,287,0.0,0.0,91,0.00,,---,0.00,VWS V14.01,2013-01-17 13:56:00,
2013-01-17 07:58:00,32.3,30.0,30.20,WNW,288,0.0,0.0,91,0.00,,---,0.00,VWS V14.01,2013-01-17 13:58:00,
2013-01-17 08:00:00,32.3,30.0,30.20,WNW,288,0.0,0.0,91,0.00,,---,0.00,VWS V14.01,2013-01-17 14:00:00,
2013-01-17 08:01:00,32.3,30.0,30.20,WNW,287,0.0,0.0,91,0.00,,---,0.00,VWS V14.01,2013-01-17 14:01:00,
2013-01-17 08:03:00,32.3,30.0,30.20,WNW,288,0.0,0.0,91,0.00,,---,0.00,VWS V14.01,2013-01-17 14:03:00,
2013-01-17 08:05:00,32.4,30.1,30.21,WNW,287,0.0,0.0,91,0.00,,---,0.00,VWS V14.01,2013-01-17 14:05:00,
2013-01-17 08:06:00,32.4,30.1,30.21,WNW,287,0.0,0.0,91,0.00,,---,0.00,VWS V14.01,2013-01-17 14:06:00,
2013-01-17 08:08:00,32.5,29.9,30.21,WNW,288,0.0,0.0,90,0.00,,---,0.00,VWS V14.01,2013-01-17 14:08:00,
2013-01-17 08:10:00,32.5,29.9,30.21,WNW,287,0.0,0.0,90,0.00,,---,0.00,VWS V14.01,2013-01-17 14:10:00,
2013-01-17 08:11:00,32.5,29.9,30.21,WNW,287,0.0,0.0,90,0.00,,---,0.00,VWS V14.01,2013-01-17 14:11:00,
2013-01-17 08:13:00,32.6,30.0,30.21,WNW,287,0.0,0.0,90,0.00,,---,0.00,VWS V14.01,2013-01-17 14:13:00,
2013-01-17 08:14:00,32.6,30.0,30.20,WNW,288,0.0,0.0,90,0.00,,---,0.00,VWS V14.01,2013-01-17 14:14:00,
2013-01-17 08:15:00,32.6,30.0,30.21,WNW,287,0.0,0.0,90,0.00,,---,0.00,VWS V14.01,2013-01-17 14:15:00,
2013-01-17 08:16:00,32.6,30.0,30.21,WNW,287,0.0,0.0,90,0.00,,---,0.00,VWS V14.01,2013-01-17 14:16:00,
2013-01-17 08:18:00,32.6,30.0,30.21,WNW,288,0.0,0.0,90,0.00,,---,0.00,VWS V14.01,2013-01-17 14:18:00,
2013-01-17 08:20:00,32.6,30.0,30.21,WNW,287,0.0,0.0,90,0.00,,---,0.00,VWS V14.01,2013-01-17 14:20:00,
2013-01-17 08:21:00,32.7,30.1,30.21,WNW,287,0.0,0.0,90,0.00,,---,0.00,VWS V14.01,2013-01-17 14:21:00,
2013-01-17 08:23:00,32.7,30.1,30.21,WNW,287,0.0,0.0,90,0.00,,---,0.00,VWS V14.01,2013-01-17 14:23:00,
2013-01-17 08:25:00,32.7,30.1,30.21,WNW,292,0.0,0.0,90,0.00,,---,0.00,VWS V14.01,2013-01-17 14:25:00,
2013-01-17 08:26:00,32.8,30.2,30.21,WNW,292,0.0,0.0,90,0.00,,---,0.00,VWS V14.01,2013-01-17 14:26:00,
2013-01-17 08:29:00,32.8,29.9,30.21,WNW,292,0.0,0.0,89,0.00,,---,0.00,VWS V14.01,2013-01-17 14:29:00,
2013-01-17 08:30:00,32.9,30.0,30.21,WNW,292,0.0,0.0,89,0.00,,---,0.00,VWS V14.01,2013-01-17 14:30:00,
2013-01-17 08:31:00,32.9,30.0,30.22,WNW,292,0.0,0.0,89,0.00,,---,0.00,VWS V14.01,2013-01-17 14:31:00,
2013-01-17 08:34:00,32.9,30.0,30.22,WNW,292,0.0,0.0,89,0.00,,---,0.00,VWS V14.01,2013-01-17 14:34:00,
2013-01-17 08:35:00,32.9,30.0,30.22,WNW,292,0.0,0.0,89,0.00,,---,0.00,VWS V14.01,2013-01-17 14:35:00,
2013-01-17 08:36:00,33.0,30.1,30.22,WNW,292,0.0,0.0,89,0.00,,---,0.00,VWS V14.01,2013-01-17 14:36:00,
2013-01-17 08:37:00,33.0,30.1,30.21,WNW,292,0.0,0.0,89,0.00,,---,0.00,VWS V14.01,2013-01-17 14:37:00,
2013-01-17 08:39:00,33.0,30.1,30.22,WNW,292,0.0,0.0,89,0.00,,---,0.00,VWS V14.01,2013-01-17 14:39:00,
2013-01-17 08:40:00,33.1,30.2,30.22,WNW,292,0.0,0.0,89,0.00,,---,0.00,VWS V14.01,2013-01-17 14:40:00,
2013-01-17 08:41:00,33.1,30.2,30.22,WNW,292,0.0,0.0,89,0.00,,---,0.00,VWS V14.01,2013-01-17 14:41:00,
2013-01-17 08:42:00,33.1,30.2,30.22,WNW,292,0.0,0.0,89,0.00,,---,0.00,VWS V14.01,2013-01-17 14:42:00,
2013-01-17 08:44:00,33.1,30.2,30.22,WNW,292,0.0,0.0,89,0.00,,---,0.00,VWS V14.01,2013-01-17 14:44:00,
2013-01-17 08:45:00,33.1,30.2,30.22,WNW,292,0.0,0.0,89,0.00,,---,0.00,VWS V14.01,2013-01-17 14:45:00,
2013-01-17 08:46:00,33.1,30.2,30.22,WNW,292,0.0,0.0,89,0.00,,---,0.00,VWS V14.01,2013-01-17 14:46:00,
2013-01-17 08:47:00,33.2,30.3,30.22,WNW,292,0.0,0.0,89,0.00,,---,0.00,VWS V14.01,2013-01-17 14:47:00,
2013-01-17 08:49:00,33.2,30.3,30.22,WNW,292,0.0,0.0,89,0.00,,---,0.00,VWS V14.01,2013-01-17 14:49:00,
2013-01-17 08:50:00,33.2,30.3,30.22,WNW,292,0.0,0.0,89,0.00,,---,0.00,VWS V14.01,2013-01-17 14:50:00,
2013-01-17 08:51:00,33.2,30.3,30.22,WNW,292,0.0,0.0,89,0.00,,---,0.00,VWS V14.01,2013-01-17 14:51:00,
2013-01-17 08:52:00,33.2,30.3,30.22,WNW,292,0.0,0.0,89,0.00,,---,0.00,VWS V14.01,2013-01-17 14:52:00,
2013-01-17 08:54:00,33.3,30.4,30.22,WNW,292,0.0,0.0,89,0.00,,---,0.00,VWS V14.01,2013-01-17 14:54:00,
2013-01-17 08:55:00,33.3,30.4,30.22,WNW,292,0.0,0.0,89,0.00,,---,0.00,VWS V14.01,2013-01-17 14:55:00,
2013-01-17 08:56:00,33.3,30.4,30.22,WNW,293,0.0,0.0,89,0.00,,---,0.00,VWS V14.01,2013-01-17 14:56:00,
2013-01-17 08:57:00,33.3,30.4,30.22,WNW,294,0.0,0.0,89,0.00,,---,0.00,VWS V14.01,2013-01-17 14:57:00,
2013-01-17 08:59:00,33.5,30.6,30.22,WNW,290,0.0,0.0,89,0.00,,---,0.00,VWS V14.01,2013-01-17 14:59:00,
2013-01-17 09:00:00,33.5,30.3,30.23,WNW,290,0.0,0.0,88,0.00,,---,0.00,VWS V14.01,2013-01-17 15:00:00,
2013-01-17 09:01:00,33.5,30.3,30.23,WNW,290,0.0,0.0,88,0.00,,---,0.00,VWS V14.01,2013-01-17 15:01:00,
2013-01-17 09:03:00,33.6,30.4,30.22,WNW,290,0.0,0.0,88,0.00,,---,0.00,VWS V14.01,2013-01-17 15:03:00,
2013-01-17 09:05:00,33.7,30.5,30.23,WNW,289,0.0,0.0,88,0.00,,---,0.00,VWS V14.01,2013-01-17 15:05:00,
2013-01-17 09:06:00,33.7,30.8,30.23,NW,307,0.0,0.0,89,0.00,,---,0.00,VWS V14.01,2013-01-17 15:06:00,
2013-01-17 09:08:00,33.8,30.9,30.23,NW,307,0.0,0.0,89,0.00,,---,0.00,VWS V14.01,2013-01-17 15:08:00,
2013-01-17 09:10:00,33.8,30.9,30.23,NW,307,0.0,0.0,89,0.00,,---,0.00,VWS V14.01,2013-01-17 15:10:00,
2013-01-17 09:11:00,33.9,31.0,30.23,NW,308,0.0,0.0,89,0.00,,---,0.00,VWS V14.01,2013-01-17 15:11:00,
2013-01-17 09:13:00,33.9,30.7,30.23,NW,311,0.0,0.0,88,0.00,,---,0.00,VWS V14.01,2013-01-17 15:13:00,
2013-01-17 09:15:00,34.0,30.8,30.24,NNW,335,0.0,0.0,88,0.00,,---,0.00,VWS V14.01,2013-01-17 15:15:00,
2013-01-17 09:17:00,34.0,30.8,30.24,North,357,0.0,0.0,88,0.00,,---,0.00,VWS V14.01,2013-01-17 15:17:00,
2013-01-17 09:18:00,34.1,30.6,30.23,North,352,0.0,1.0,87,0.00,,---,0.00,VWS V14.01,2013-01-17 15:18:00,
2013-01-17 09:20:00,34.2,30.7,30.24,NNW,337,1.0,1.0,87,0.00,,---,0.00,VWS V14.01,2013-01-17 15:20:00,
2013-01-17 09:22:00,34.3,30.8,30.24,NNW,337,1.0,1.0,87,0.00,,---,0.00,VWS V14.01,2013-01-17 15:22:00,
2013-01-17 09:23:00,34.3,30.8,30.24,NNW,337,1.0,1.0,87,0.00,,---,0.00,VWS V14.01,2013-01-17 15:23:00,
2013-01-17 09:25:00,34.4,30.9,30.24,NNW,343,0.0,1.0,87,0.00,,---,0.00,VWS V14.01,2013-01-17 15:25:00,
2013-01-17 09:26:00,34.4,30.9,30.24,NNE,19,1.0,2.0,87,0.00,,---,0.00,VWS V14.01,2013-01-17 15:26:00,
2013-01-17 09:27:00,34.4,30.9,30.24,NNE,17,0.0,2.0,87,0.00,,---,0.00,VWS V14.01,2013-01-17 15:27:00,
2013-01-17 09:28:00,34.4,30.9,30.24,North,8,1.0,2.0,87,0.00,,---,0.00,VWS V14.01,2013-01-17 15:28:00,
2013-01-17 09:30:00,34.5,31.0,30.24,NNW,330,0.0,2.0,87,0.00,,---,0.00,VWS V14.01,2013-01-17 15:30:00,
2013-01-17 09:31:00,34.5,31.0,30.24,NNW,330,1.0,1.0,87,0.00,,---,0.00,VWS V14.01,2013-01-17 15:31:00,
2013-01-17 09:32:00,34.5,31.0,30.24,NNW,343,1.0,1.0,87,0.00,,---,0.00,VWS V14.01,2013-01-17 15:32:00,
2013-01-17 09:33:00,34.6,31.1,30.24,NNW,342,0.0,1.0,87,0.00,,---,0.00,VWS V14.01,2013-01-17 15:33:00,
2013-01-17 09:35:00,34.6,31.1,30.24,NNW,343,0.0,1.0,87,0.00,,---,0.00,VWS V14.01,2013-01-17 15:35:00,
2013-01-17 09:36:00,34.6,31.1,30.24,North,1,1.0,1.0,87,0.00,,---,0.00,VWS V14.01,2013-01-17 15:36:00,
2013-01-17 09:37:00,34.6,31.1,30.24,NNE,17,2.0,2.0,87,0.00,,---,0.00,VWS V14.01,2013-01-17 15:37:00,
2013-01-17 09:38:00,34.6,31.1,30.24,North,353,0.0,3.0,87,0.00,,---,0.00,VWS V14.01,2013-01-17 15:38:00,
2013-01-17 09:40:00,34.6,31.1,30.25,NE,36,1.0,3.0,87,0.00,,---,0.00,VWS V14.01,2013-01-17 15:40:00,
2013-01-17 09:41:00,34.6,30.9,30.25,WNW,290,0.0,3.0,86,0.00,,---,0.00,VWS V14.01,2013-01-17 15:41:00,
2013-01-17 09:42:00,34.7,31.0,30.25,NW,305,1.0,3.0,86,0.00,,---,0.00,VWS V14.01,2013-01-17 15:42:00,
2013-01-17 09:43:00,34.7,31.0,30.25,NNE,22,2.0,3.0,86,0.00,,---,0.00,VWS V14.01,2013-01-17 15:43:00,
2013-01-17 09:45:00,34.7,31.0,30.25,North,352,0.0,3.0,86,0.00,,---,0.00,VWS V14.01,2013-01-17 15:45:00,
2013-01-17 09:46:00,34.8,31.3,30.25,North,349,1.0,1.0,87,0.00,,---,0.00,VWS V14.01,2013-01-17 15:46:00,
2013-01-17 09:47:00,34.8,31.0,30.25,North,349,0.0,1.0,86,0.00,,---,0.00,VWS V14.01,2013-01-17 15:47:00,
2013-01-17 09:48:00,34.8,31.0,30.25,North,350,1.0,1.0,86,0.00,,---,0.00,VWS V14.01,2013-01-17 15:48:00,
2013-01-17 09:50:00,34.8,31.3,30.25,NNW,339,1.0,2.0,87,0.00,,---,0.00,VWS V14.01,2013-01-17 15:50:00,
2013-01-17 09:52:00,34.8,31.3,30.25,NNW,339,0.0,2.0,87,0.00,,---,0.00,VWS V14.01,2013-01-17 15:52:00,
2013-01-17 09:53:00,34.8,31.3,30.25,NNW,332,1.0,2.0,87,0.00,,---,0.00,VWS V14.01,2013-01-17 15:53:00,
2013-01-17 09:55:00,34.9,31.1,30.25,NNW,334,0.0,2.0,86,0.00,,---,0.00,VWS V14.01,2013-01-17 15:55:00,
2013-01-17 09:57:00,34.9,31.1,30.25,NNW,333,1.0,2.0,86,0.00,,---,0.00,VWS V14.01,2013-01-17 15:57:00,
2013-01-17 09:58:00,34.9,31.4,30.25,NNW,333,0.0,2.0,87,0.00,,---,0.00,VWS V14.01,2013-01-17 15:58:00,
2013-01-17 10:00:00,35.0,31.5,30.25,North,354,1.0,2.0,87,0.00,,---,0.00,VWS V14.01,2013-01-17 16:00:00,
2013-01-17 10:02:00,35.0,31.5,30.25,WNW,297,0.0,1.0,87,0.00,,---,0.00,VWS V14.01,2013-01-17 16:02:00,
2013-01-17 10:03:00,35.0,31.5,30.25,NNW,333,1.0,1.0,87,0.00,,---,0.00,VWS V14.01,2013-01-17 16:03:00,
2013-01-17 10:05:00,35.1,31.6,30.25,NNE,13,1.0,2.0,87,0.00,,---,0.00,VWS V14.01,2013-01-17 16:05:00,
2013-01-17 10:07:00,35.1,31.3,30.25,WNW,301,0.0,2.0,86,0.00,,---,0.00,VWS V14.01,2013-01-17 16:07:00,
2013-01-17 10:08:00,35.1,31.3,30.25,NW,315,0.0,2.0,86,0.00,,---,0.00,VWS V14.01,2013-01-17 16:08:00,
2013-01-17 10:11:00,35.1,31.3,30.25,NNW,332,1.0,2.0,86,0.00,,---,0.00,VWS V14.01,2013-01-17 16:11:00,
2013-01-17 10:12:00,35.1,31.3,30.25,NNW,332,1.0,2.0,86,0.00,,---,0.00,VWS V14.01,2013-01-17 16:12:00,
2013-01-17 10:13:00,35.1,31.3,30.25,NNW,332,0.0,2.0,86,0.00,,---,0.00,VWS V14.01,2013-01-17 16:13:00,
2013-01-17 10:16:00,35.1,31.3,30.25,NW,318,0.0,2.0,86,0.00,,---,0.00,VWS V14.01,2013-01-17 16:16:00,
2013-01-17 10:17:00,35.1,31.6,30.25,NNW,335,1.0,2.0,87,0.00,,---,0.00,VWS V14.01,2013-01-17 16:17:00,
2013-01-17 10:18:00,35.1,31.3,30.25,NW,323,1.0,2.0,86,0.00,,---,0.00,VWS V14.01,2013-01-17 16:18:00,
2013-01-17 10:21:00,35.2,31.7,30.25,NW,323,0.0,2.0,87,0.00,,---,0.00,VWS V14.01,2013-01-17 16:21:00,
2013-01-17 10:22:00,35.2,31.7,30.25,NNW,335,0.0,2.0,87,0.00,,---,0.00,VWS V14.01,2013-01-17 16:22:00,
2013-01-17 10:23:00,35.2,31.7,30.25,NNW,335,1.0,2.0,87,0.00,,---,0.00,VWS V14.01,2013-01-17 16:23:00,
2013-01-17 10:26:00,35.3,31.8,30.25,NW,315,0.0,2.0,87,0.00,,---,0.00,VWS V14.01,2013-01-17 16:26:00,
2013-01-17 10:27:00,35.3,31.8,30.25,North,356,1.0,2.0,87,0.00,,---,0.00,VWS V14.01,2013-01-17 16:27:00,
2013-01-17 10:28:00,35.3,31.8,30.25,NNW,332,3.0,3.0,87,0.00,,---,0.00,VWS V14.01,2013-01-17 16:28:00,
2013-01-17 10:31:00,35.3,31.5,30.24,North,7,0.0,2.0,86,0.00,,---,0.00,VWS V14.01,2013-01-17 16:31:00,
2013-01-17 10:32:00,35.4,31.9,30.24,North,357,0.0,2.0,87,0.00,,---,0.00,VWS V14.01,2013-01-17 16:32:00,
2013-01-17 10:33:00,35.4,31.9,30.24,North,357,1.0,2.0,87,0.00,,---,0.00,VWS V14.01,2013-01-17 16:33:00,
2013-01-17 10:36:00,35.4,31.6,30.24,North,357,2.0,4.0,86,0.00,,---,0.00,VWS V14.01,2013-01-17 16:36:00,
2013-01-17 10:37:00,35.4,31.6,30.24,North,354,1.0,4.0,86,0.00,,---,0.00,VWS V14.01,2013-01-17 16:37:00,
2013-01-17 10:38:00,35.4,31.6,30.24,NW,315,0.0,4.0,86,0.00,,---,0.00,VWS V14.01,2013-01-17 16:38:00,
2013-01-17 10:39:00,35.5,31.7,30.24,North,357,1.0,4.0,86,0.00,,---,0.00,VWS V14.01,2013-01-17 16:39:00,
2013-01-17 10:41:00,35.6,32.1,30.24,NNW,344,1.0,4.0,87,0.00,,---,0.00,VWS V14.01,2013-01-17 16:41:00,
2013-01-17 10:42:00,35.6,32.1,30.24,NNW,342,0.0,4.0,87,0.00,,---,0.00,VWS V14.01,2013-01-17 16:42:00,
2013-01-17 10:43:00,35.6,32.1,30.24,NNW,340,0.0,4.0,87,0.00,,---,0.00,VWS V14.01,2013-01-17 16:43:00,
2013-01-17 10:44:00,35.7,32.2,30.24,NNW,335,0.0,4.0,87,0.00,,---,0.00,VWS V14.01,2013-01-17 16:44:00,
2013-01-17 10:46:00,35.8,32.3,30.24,NNW,339,1.0,1.0,87,0.00,,---,0.00,VWS V14.01,2013-01-17 16:46:00,
2013-01-17 10:48:00,35.8,32.3,30.24,NNW,339,1.0,2.0,87,0.00,,---,0.00,VWS V14.01,2013-01-17 16:48:00,
2013-01-17 10:49:00,35.8,32.3,30.24,NNE,31,2.0,4.0,87,0.00,,---,0.00,VWS V14.01,2013-01-17 16:49:00,
2013-01-17 10:51:00,35.9,32.1,30.24,NNE,16,2.0,4.0,86,0.00,,---,0.00,VWS V14.01,2013-01-17 16:51:00,
2013-01-17 10:53:00,35.9,32.1,30.24,North,358,2.0,4.0,86,0.00,,---,0.00,VWS V14.01,2013-01-17 16:53:00,
2013-01-17 10:54:00,35.9,32.1,30.24,North,356,2.0,4.0,86,0.00,,---,0.00,VWS V14.01,2013-01-17 16:54:00,
2013-01-17 10:56:00,35.9,32.1,30.24,North,354,0.0,4.0,86,0.00,,---,0.00,VWS V14.01,2013-01-17 16:56:00,
2013-01-17 10:58:00,35.9,32.1,30.24,North,8,1.0,4.0,86,0.00,,---,0.00,VWS V14.01,2013-01-17 16:58:00,
2013-01-17 10:59:00,36.0,32.2,30.24,North,6,1.0,4.0,86,0.00,,---,0.00,VWS V14.01,2013-01-17 16:59:00,
2013-01-17 11:01:00,36.0,32.2,30.24,North,354,2.0,3.0,86,0.00,,---,0.00,VWS V14.01,2013-01-17 17:01:00,
2013-01-17 11:03:00,36.0,32.2,30.23,NNW,345,1.0,3.0,86,0.00,,---,0.00,VWS V14.01,2013-01-17 17:03:00,
2013-01-17 11:04:00,36.1,32.3,30.23,NNW,344,0.0,3.0,86,0.00,,---,0.00,VWS V14.01,2013-01-17 17:04:00,
2013-01-17 11:07:00,36.2,32.4,30.24,North,354,2.0,3.0,86,0.00,,---,0.00,VWS V14.01,2013-01-17 17:07:00,
2013-01-17 11:08:00,36.2,32.1,30.24,NNE,13,1.0,3.0,85,0.00,,---,0.00,VWS V14.01,2013-01-17 17:08:00,
2013-01-17 11:09:00,36.2,32.4,30.24,North,8,0.0,3.0,86,0.00,,---,0.00,VWS V14.01,2013-01-17 17:09:00,
2013-01-17 11:12:00,36.4,32.6,30.24,North,354,1.0,3.0,86,0.00,,---,0.00,VWS V14.01,2013-01-17 17:12:00,
2013-01-17 11:13:00,36.5,32.7,30.23,NNW,330,0.0,3.0,86,0.00,,---,0.00,VWS V14.01,2013-01-17 17:13:00,
2013-01-17 11:14:00,36.5,32.7,30.23,NNW,330,1.0,3.0,86,0.00,,---,0.00,VWS V14.01,2013-01-17 17:14:00,
2013-01-17 11:18:00,36.8,33.0,30.23,NNW,335,0.0,2.0,86,0.00,,---,0.00,VWS V14.01,2013-01-17 17:18:00,
2013-01-17 11:19:00,36.9,33.1,30.23,North,10,0.0,2.0,86,0.00,,---,0.00,VWS V14.01,2013-01-17 17:19:00,
2013-01-17 11:23:00,37.3,33.5,30.23,NNW,334,2.0,3.0,86,0.00,,---,0.00,VWS V14.01,2013-01-17 17:23:00,
2013-01-17 11:24:00,37.4,33.3,30.23,NW,326,1.0,3.0,85,0.00,,---,0.00,VWS V14.01,2013-01-17 17:24:00,
2013-01-17 11:28:00,37.7,33.3,30.23,NNW,344,0.0,4.0,84,0.00,,---,0.00,VWS V14.01,2013-01-17 17:28:00,
2013-01-17 11:29:00,37.7,33.6,30.23,NNW,333,1.0,4.0,85,0.00,,---,0.00,VWS V14.01,2013-01-17 17:29:00,
2013-01-17 11:33:00,38.1,33.7,30.22,NNW,330,1.0,5.0,84,0.00,,---,0.00,VWS V14.01,2013-01-17 17:33:00,
2013-01-17 11:34:00,38.2,34.1,30.22,NNW,330,1.0,5.0,85,0.00,,---,0.00,VWS V14.01,2013-01-17 17:34:00,
2013-01-17 11:38:00,38.8,34.4,30.22,North,10,2.0,5.0,84,0.00,,---,0.00,VWS V14.01,2013-01-17 17:38:00,
2013-01-17 11:39:00,38.8,33.8,30.22,North,360,4.0,5.0,82,0.00,,---,0.00,VWS V14.01,2013-01-17 17:39:00,
2013-01-17 11:43:00,39.0,34.0,30.22,NNW,340,0.0,5.0,82,0.00,,---,0.00,VWS V14.01,2013-01-17 17:43:00,
2013-01-17 11:44:00,39.1,34.1,30.22,NNW,340,0.0,5.0,82,0.00,,---,0.00,VWS V14.01,2013-01-17 17:44:00,
2013-01-17 11:49:00,39.7,35.0,30.22,NW,323,1.0,3.0,83,0.00,,---,0.00,VWS V14.01,2013-01-17 17:49:00,
2013-01-17 11:54:00,40.4,35.3,30.22,WNW,302,0.0,4.0,82,0.00,,---,0.00,VWS V14.01,2013-01-17 17:54:00,
2013-01-17 11:55:00,40.4,35.3,30.22,NNW,347,1.0,4.0,82,0.00,,---,0.00,VWS V14.01,2013-01-17 17:55:00,
2013-01-17 11:59:00,40.9,35.5,30.22,NNE,25,3.0,4.0,81,0.00,,---,0.00,VWS V14.01,2013-01-17 17:59:00,
2013-01-17 12:00:00,41.0,35.3,30.22,NNW,337,1.0,4.0,80,0.00,,---,0.00,VWS V14.01,2013-01-17 18:00:00,
2013-01-17 12:04:00,41.1,34.8,30.22,NNE,22,4.0,4.0,78,0.00,,---,0.00,VWS V14.01,2013-01-17 18:04:00,
2013-01-17 12:05:00,41.1,34.8,30.22,ENE,70,2.0,4.0,78,0.00,,---,0.00,VWS V14.01,2013-01-17 18:05:00,
2013-01-17 12:09:00,40.9,34.6,30.22,North,6,0.0,4.0,78,0.00,,---,0.00,VWS V14.01,2013-01-17 18:09:00,
2013-01-17 12:10:00,41.0,34.7,30.22,North,6,0.0,4.0,78,0.00,,---,0.00,VWS V14.01,2013-01-17 18:10:00,
2013-01-17 12:14:00,41.2,34.9,30.23,North,6,2.0,4.0,78,0.00,,---,0.00,VWS V14.01,2013-01-17 18:14:00,
2013-01-17 12:15:00,41.2,34.9,30.23,North,4,1.0,4.0,78,0.00,,---,0.00,VWS V14.01,2013-01-17 18:15:00,
2013-01-17 12:19:00,41.3,35.0,30.22,NW,326,0.0,3.0,78,0.00,,---,0.00,VWS V14.01,2013-01-17 18:19:00,
2013-01-17 12:20:00,41.3,35.3,30.23,NW,325,1.0,3.0,79,0.00,,---,0.00,VWS V14.01,2013-01-17 18:20:00,
2013-01-17 12:24:00,41.8,35.5,30.23,North,352,2.0,3.0,78,0.00,,---,0.00,VWS V14.01,2013-01-17 18:24:00,
2013-01-17 12:25:00,41.8,34.8,30.23,North,353,3.0,3.0,76,0.00,,---,0.00,VWS V14.01,2013-01-17 18:25:00,
2013-01-17 12:29:00,42.0,35.0,30.22,NNE,24,3.0,6.0,76,0.00,,---,0.00,VWS V14.01,2013-01-17 18:29:00,
2013-01-17 12:30:00,42.2,35.5,30.23,NNW,343,1.0,6.0,77,0.00,,---,0.00,VWS V14.01,2013-01-17 18:30:00,
2013-01-17 12:34:00,42.8,36.4,30.22,West,261,0.0,2.0,78,0.00,,---,0.00,VWS V14.01,2013-01-17 18:34:00,
2013-01-17 12:35:00,42.9,36.5,30.22,West,262,1.0,2.0,78,0.00,,---,0.00,VWS V14.01,2013-01-17 18:35:00,
2013-01-17 12:39:00,43.5,36.5,30.22,NW,307,2.0,3.0,76,0.00,,---,0.00,VWS V14.01,2013-01-17 18:39:00,
2013-01-17 12:40:00,43.6,36.5,30.22,NW,304,1.0,3.0,76,0.00,,---,0.00,VWS V14.01,2013-01-17 18:40:00,
2013-01-17 12:44:00,44.0,35.9,30.22,North,357,3.0,5.0,73,0.00,,---,0.00,VWS V14.01,2013-01-17 18:44:00,
2013-01-17 12:45:00,44.0,35.9,30.22,NNE,29,4.0,5.0,73,0.00,,---,0.00,VWS V14.01,2013-01-17 18:45:00,
2013-01-17 12:49:00,44.0,35.9,30.22,NW,314,1.0,6.0,73,0.00,,---,0.00,VWS V14.01,2013-01-17 18:49:00,
2013-01-17 12:50:00,44.0,36.3,30.22,NW,315,1.0,6.0,74,0.00,,---,0.00,VWS V14.01,2013-01-17 18:50:00,
2013-01-17 12:51:00,44.1,36.0,30.22,NNE,13,2.0,6.0,73,0.00,,---,0.00,VWS V14.01,2013-01-17 18:51:00,
2013-01-17 12:54:00,44.3,36.2,30.22,North,7,2.0,6.0,73,0.00,,---,0.00,VWS V14.01,2013-01-17 18:54:00,
2013-01-17 12:55:00,44.3,35.5,30.22,NNW,332,2.0,6.0,71,0.00,,---,0.00,VWS V14.01,2013-01-17 18:55:00,
2013-01-17 12:56:00,44.4,36.0,30.22,NW,325,1.0,6.0,72,0.00,,---,0.00,VWS V14.01,2013-01-17 18:56:00,
2013-01-17 13:00:00,44.7,36.6,30.22,NW,311,1.0,6.0,73,0.00,,---,0.00,VWS V14.01,2013-01-17 19:00:00,
2013-01-17 13:01:00,44.9,36.8,30.22,NW,321,1.0,1.0,73,0.00,,---,0.00,VWS V14.01,2013-01-17 19:01:00,
2013-01-17 13:05:00,45.4,37.3,30.23,NW,315,1.0,4.0,73,0.00,,---,0.00,VWS V14.01,2013-01-17 19:05:00,
2013-01-17 13:06:00,45.5,36.7,30.23,NW,325,1.0,4.0,71,0.00,,---,0.00,VWS V14.01,2013-01-17 19:06:00,
2013-01-17 13:10:00,45.7,36.5,30.23,North,360,2.0,4.0,70,0.00,,---,0.00,VWS V14.01,2013-01-17 19:10:00,
2013-01-17 13:11:00,45.8,36.6,30.23,WNW,287,2.0,4.0,70,0.00,,---,0.00,VWS V14.01,2013-01-17 19:11:00,
2013-01-17 13:15:00,46.0,36.8,30.23,NNE,24,2.0,4.0,70,0.00,,---,0.00,VWS V14.01,2013-01-17 19:15:00,
2013-01-17 13:16:00,46.1,36.5,30.23,NNW,333,1.0,3.0,69,0.00,,---,0.00,VWS V14.01,2013-01-17 19:16:00,
2013-01-17 13:20:00,46.1,36.1,30.23,NNE,26,3.0,5.0,68,0.00,,---,0.00,VWS V14.01,2013-01-17 19:20:00,
2013-01-17 13:21:00,46.0,35.7,30.23,NNE,24,2.0,5.0,67,0.00,,---,0.00,VWS V14.01,2013-01-17 19:21:00,
2013-01-17 13:25:00,46.3,36.7,30.23,NW,325,1.0,5.0,69,0.00,,---,0.00,VWS V14.01,2013-01-17 19:25:00,
2013-01-17 13:26:00,46.4,36.8,30.23,NW,324,0.0,5.0,69,0.00,,---,0.00,VWS V14.01,2013-01-17 19:26:00,
2013-01-17 13:30:00,46.8,36.4,30.23,NW,318,1.0,3.0,67,0.00,,---,0.00,VWS V14.01,2013-01-17 19:30:00,
2013-01-17 13:31:00,46.8,36.4,30.23,North,349,3.0,3.0,67,0.00,,---,0.00,VWS V14.01,2013-01-17 19:31:00,
2013-01-17 13:35:00,47.2,37.2,30.23,WNW,297,1.0,4.0,68,0.00,,---,0.00,VWS V14.01,2013-01-17 19:35:00,
2013-01-17 13:36:00,47.2,37.6,30.23,WNW,297,0.0,4.0,69,0.00,,---,0.00,VWS V14.01,2013-01-17 19:36:00,
2013-01-17 13:41:00,47.5,37.1,30.23,NW,308,1.0,4.0,67,0.00,,---,0.00,VWS V14.01,2013-01-17 19:41:00,
2013-01-17 13:46:00,47.5,36.3,30.23,NW,323,2.0,2.0,65,0.00,,---,0.00,VWS V14.01,2013-01-17 19:46:00,
2013-01-17 13:51:00,47.5,36.3,30.23,NNW,330,2.0,3.0,65,0.00,,---,0.00,VWS V14.01,2013-01-17 19:51:00,
2013-01-17 13:56:00,47.5,36.3,30.23,NW,316,0.0,3.0,65,0.01,,---,0.01,VWS V14.01,2013-01-17 19:56:00,
2013-01-17 14:01:00,47.5,35.5,30.24,North,353,2.0,4.0,63,0.01,,---,0.01,VWS V14.01,2013-01-17 20:01:00,
2013-01-17 14:02:00,47.5,35.5,30.24,NNW,333,2.0,4.0,63,0.01,,---,0.01,VWS V14.01,2013-01-17 20:02:00,
2013-01-17 14:06:00,47.3,36.2,30.24,North,355,2.0,5.0,65,0.02,,---,0.02,VWS V14.01,2013-01-17 20:06:00,
2013-01-17 14:07:00,47.3,36.2,30.24,North,354,1.0,5.0,65,0.02,,---,0.02,VWS V14.01,2013-01-17 20:07:00,
2013-01-17 14:11:00,47.7,36.1,30.24,NW,318,2.0,6.0,64,0.02,,---,0.02,VWS V14.01,2013-01-17 20:11:00,
2013-01-17 14:12:00,47.7,36.1,30.24,NW,318,2.0,6.0,64,0.02,,---,0.02,VWS V14.01,2013-01-17 20:12:00,
2013-01-17 14:16:00,47.8,36.2,30.24,NW,322,1.0,4.0,64,0.02,,---,0.02,VWS V14.01,2013-01-17 20:16:00,
2013-01-17 14:17:00,47.8,36.2,30.24,NW,323,0.0,4.0,64,0.02,,---,0.02,VWS V14.01,2013-01-17 20:17:00,
2013-01-17 14:22:00,47.9,36.3,30.25,NW,315,2.0,4.0,64,0.03,,---,0.03,VWS V14.01,2013-01-17 20:22:00,
2013-01-17 14:27:00,47.8,36.2,30.25,NNW,335,2.0,4.0,64,0.03,,---,0.03,VWS V14.01,2013-01-17 20:27:00,
2013-01-17 14:32:00,47.5,35.9,30.25,North,11,1.0,3.0,64,0.03,,---,0.03,VWS V14.01,2013-01-17 20:32:00,
2013-01-17 14:37:00,47.8,36.2,30.26,NW,319,1.0,4.0,64,0.04,,---,0.04,VWS V14.01,2013-01-17 20:37:00,
2013-01-17 14:38:00,47.8,36.2,30.26,NW,321,2.0,4.0,64,0.04,,---,0.04,VWS V14.01,2013-01-17 20:38:00,
2013-01-17 14:42:00,47.8,36.2,30.27,NNW,330,1.0,5.0,64,0.04,,---,0.04,VWS V14.01,2013-01-17 20:42:00,
2013-01-17 14:43:00,47.7,36.1,30.27,NNW,328,2.0,5.0,64,0.04,,---,0.04,VWS V14.01,2013-01-17 20:43:00,
2013-01-17 14:47:00,47.6,36.4,30.27,North,10,1.0,3.0,65,0.04,,---,0.04,VWS V14.01,2013-01-17 20:47:00,
2013-01-17 14:48:00,47.6,36.4,30.27,NNW,327,3.0,4.0,65,0.04,,---,0.04,VWS V14.01,2013-01-17 20:48:00,
2013-01-17 14:52:00,47.5,36.3,30.28,North,359,2.0,4.0,65,0.04,,---,0.04,VWS V14.01,2013-01-17 20:52:00,
2013-01-17 14:53:00,47.4,36.2,30.27,NNW,337,1.0,4.0,65,0.04,,---,0.04,VWS V14.01,2013-01-17 20:53:00,
2013-01-17 14:57:00,47.5,36.3,30.28,North,11,2.0,4.0,65,0.05,,---,0.05,VWS V14.01,2013-01-17 20:57:00,
2013-01-17 14:58:00,47.4,36.6,30.28,NNW,340,2.0,4.0,66,0.05,,---,0.05,VWS V14.01,2013-01-17 20:58:00,
2013-01-17 15:02:00,47.5,36.3,30.28,NW,309,2.0,2.0,65,0.04,,---,0.05,VWS V14.01,2013-01-17 21:02:00,
2013-01-17 15:03:00,47.5,36.3,30.28,NNW,331,1.0,3.0,65,0.04,,---,0.05,VWS V14.01,2013-01-17 21:03:00,
2013-01-17 15:07:00,47.3,36.5,30.28,NW,325,1.0,5.0,66,0.04,,---,0.05,VWS V14.01,2013-01-17 21:07:00,
2013-01-17 15:09:00,47.2,36.4,30.28,North,7,3.0,5.0,66,0.04,,---,0.05,VWS V14.01,2013-01-17 21:09:00,
2013-01-17 15:12:00,47.1,36.3,30.28,NE,45,4.0,5.0,66,0.04,,---,0.05,VWS V14.01,2013-01-17 21:12:00,
2013-01-17 15:14:00,46.9,36.2,30.28,North,3,2.0,6.0,66,0.04,,---,0.05,VWS V14.01,2013-01-17 21:14:00,
2013-01-17 15:17:00,46.8,36.4,30.29,NE,56,2.0,3.0,67,0.04,,---,0.06,VWS V14.01,2013-01-17 21:17:00,
2013-01-17 15:18:00,46.8,36.4,30.29,NNW,342,2.0,3.0,67,0.04,,---,0.06,VWS V14.01,2013-01-17 21:18:00,
2013-01-17 15:19:00,46.8,36.4,30.29,West,263,2.0,4.0,67,0.04,,---,0.06,VWS V14.01,2013-01-17 21:19:00,
2013-01-17 15:22:00,46.8,36.4,30.29,NW,318,2.0,4.0,67,0.04,,---,0.06,VWS V14.01,2013-01-17 21:22:00,
2013-01-17 15:23:00,46.8,36.4,30.29,NNW,345,2.0,4.0,67,0.04,,---,0.06,VWS V14.01,2013-01-17 21:23:00,
2013-01-17 15:24:00,46.8,36.0,30.29,North,352,2.0,4.0,66,0.04,,---,0.06,VWS V14.01,2013-01-17 21:24:00,
2013-01-17 15:27:00,46.9,36.5,30.29,NW,305,2.0,4.0,67,0.04,,---,0.06,VWS V14.01,2013-01-17 21:27:00,
2013-01-17 15:28:00,46.9,36.5,30.30,NW,306,1.0,4.0,67,0.04,,---,0.06,VWS V14.01,2013-01-17 21:28:00,
2013-01-17 15:29:00,47.0,36.2,30.29,NNW,335,3.0,4.0,66,0.04,,---,0.06,VWS V14.01,2013-01-17 21:29:00,
2013-01-17 15:33:00,47.0,36.6,30.30,NE,45,13.0,14.0,67,0.03,,---,0.06,VWS V14.01,2013-01-17 21:33:00,
2013-01-17 15:34:00,46.8,36.0,30.30,North,8,3.0,14.0,66,0.03,,---,0.06,VWS V14.01,2013-01-17 21:34:00,
2013-01-17 15:38:00,46.6,35.9,30.30,NW,321,1.0,14.0,66,0.04,,---,0.07,VWS V14.01,2013-01-17 21:38:00,
2013-01-17 15:39:00,46.7,36.3,30.30,NNE,17,4.0,14.0,67,0.04,,---,0.07,VWS V14.01,2013-01-17 21:39:00,
2013-01-17 15:43:00,46.7,36.3,30.30,NNE,19,3.0,14.0,67,0.04,,---,0.07,VWS V14.01,2013-01-17 21:43:00,
2013-01-17 15:45:00,46.7,36.3,30.30,NNE,21,2.0,14.0,67,0.04,,---,0.07,VWS V14.01,2013-01-17 21:45:00,
2013-01-17 15:48:00,46.5,36.2,30.30,North,3,2.0,5.0,67,0.03,,---,0.07,VWS V14.01,2013-01-17 21:48:00,
2013-01-17 15:50:00,46.5,36.5,30.31,North,353,1.0,5.0,68,0.03,,---,0.07,VWS V14.01,2013-01-17 21:50:00,
2013-01-17 15:53:00,46.6,36.6,30.31,NE,42,4.0,7.0,68,0.03,,---,0.07,VWS V14.01,2013-01-17 21:53:00,
2013-01-17 15:54:00,46.6,36.2,30.31,ENE,70,1.0,7.0,67,0.03,,---,0.07,VWS V14.01,2013-01-17 21:54:00,
2013-01-17 15:55:00,46.5,36.5,30.31,NNW,347,3.0,7.0,68,0.03,,---,0.07,VWS V14.01,2013-01-17 21:55:00,
2013-01-17 15:58:00,46.5,36.5,30.31,NW,323,1.0,7.0,68,0.03,,---,0.07,VWS V14.01,2013-01-17 21:58:00,
2013-01-17 15:59:00,46.5,36.9,30.31,NW,324,0.0,7.0,69,0.03,,---,0.07,VWS V14.01,2013-01-17 21:59:00,
2013-01-17 16:00:00,46.6,37.0,30.31,NNW,328,2.0,7.0,69,0.03,,---,0.07,VWS V14.01,2013-01-17 22:00:00,
2013-01-17 16:03:00,46.6,37.0,30.31,NNW,333,1.0,4.0,69,0.03,,---,0.08,VWS V14.01,2013-01-17 22:03:00,
2013-01-17 16:04:00,46.6,37.0,30.32,NNW,333,1.0,4.0,69,0.03,,---,0.08,VWS V14.01,2013-01-17 22:04:00,
2013-01-17 16:05:00,46.5,36.9,30.32,North,354,2.0,4.0,69,0.03,,---,0.08,VWS V14.01,2013-01-17 22:05:00,
2013-01-17 16:08:00,46.4,37.2,30.32,NNE,29,2.0,5.0,70,0.03,,---,0.08,VWS V14.01,2013-01-17 22:08:00,
2013-01-17 16:09:00,46.4,36.8,30.32,ESE,108,1.0,5.0,69,0.03,,---,0.08,VWS V14.01,2013-01-17 22:09:00,
2013-01-17 16:10:00,46.4,37.2,30.32,North,10,3.0,5.0,70,0.03,,---,0.08,VWS V14.01,2013-01-17 22:10:00,
2013-01-17 16:13:00,46.3,37.1,30.32,NNW,342,3.0,5.0,70,0.03,,---,0.08,VWS V14.01,2013-01-17 22:13:00,
2013-01-17 16:14:00,46.3,37.1,30.32,NW,312,2.0,5.0,70,0.03,,---,0.08,VWS V14.01,2013-01-17 22:14:00,
2013-01-17 16:15:00,46.3,37.1,30.32,NNE,20,2.0,5.0,70,0.03,,---,0.08,VWS V14.01,2013-01-17 22:15:00,
2013-01-17 16:18:00,46.3,37.4,30.33,NE,41,3.0,10.0,71,0.03,,---,0.08,VWS V14.01,2013-01-17 22:18:00,
2013-01-17 16:19:00,46.3,37.1,30.32,NNW,346,1.0,10.0,70,0.03,,---,0.08,VWS V14.01,2013-01-17 22:19:00,
2013-01-17 16:20:00,46.2,37.0,30.33,North,359,3.0,10.0,70,0.03,,---,0.08,VWS V14.01,2013-01-17 22:20:00,
2013-01-17 16:24:00,46.2,37.3,30.33,NW,315,2.0,10.0,71,0.03,,---,0.08,VWS V14.01,2013-01-17 22:24:00,
2013-01-17 16:25:00,46.1,37.2,30.33,North,352,2.0,10.0,71,0.03,,---,0.08,VWS V14.01,2013-01-17 22:25:00,
2013-01-17 16:29:00,46.1,37.2,30.33,NNW,339,1.0,10.0,71,0.03,,---,0.08,VWS V14.01,2013-01-17 22:29:00,
2013-01-17 16:30:00,46.1,37.2,30.33,NNW,327,1.0,10.0,71,0.03,,---,0.08,VWS V14.01,2013-01-17 22:30:00,
2013-01-17 16:34:00,46.1,37.6,30.33,NNE,18,1.0,3.0,72,0.03,,---,0.09,VWS V14.01,2013-01-17 22:34:00,
2013-01-17 16:35:00,46.0,37.1,30.33,NNW,347,0.0,3.0,71,0.03,,---,0.09,VWS V14.01,2013-01-17 22:35:00,
2013-01-17 16:39:00,45.9,37.4,30.33,ESE,106,0.0,4.0,72,0.03,,---,0.09,VWS V14.01,2013-01-17 22:39:00,
2013-01-17 16:40:00,45.9,37.4,30.33,ESE,106,0.0,4.0,72,0.03,,---,0.09,VWS V14.01,2013-01-17 22:40:00,
2013-01-17 16:44:00,45.7,37.2,30.33,NNE,24,0.0,4.0,72,0.03,,---,0.09,VWS V14.01,2013-01-17 22:44:00,
2013-01-17 16:45:00,45.8,37.7,30.33,NNE,24,0.0,4.0,73,0.03,,---,0.09,VWS V14.01,2013-01-17 22:45:00,
2013-01-17 16:49:00,45.6,37.1,30.34,WNW,292,1.0,1.0,72,0.02,,---,0.09,VWS V14.01,2013-01-17 22:49:00,
2013-01-17 16:50:00,45.6,37.5,30.34,WNW,292,0.0,1.0,73,0.02,,---,0.09,VWS V14.01,2013-01-17 22:50:00,
2013-01-17 16:51:00,45.5,37.4,30.34,NE,39,2.0,3.0,73,0.02,,---,0.09,VWS V14.01,2013-01-17 22:51:00,
2013-01-17 16:54:00,45.3,37.2,30.34,NNW,337,0.0,3.0,73,0.02,,---,0.09,VWS V14.01,2013-01-17 22:54:00,
2013-01-17 16:55:00,45.3,37.2,30.34,NNW,337,0.0,3.0,73,0.02,,---,0.09,VWS V14.01,2013-01-17 22:55:00,
2013-01-17 16:56:00,45.2,37.1,30.34,NNW,337,0.0,3.0,73,0.02,,---,0.09,VWS V14.01,2013-01-17 22:56:00,
2013-01-17 16:59:00,45.1,37.3,30.34,NNW,339,0.0,3.0,74,0.02,,---,0.09,VWS V14.01,2013-01-17 22:59:00,
2013-01-17 17:00:00,45.0,37.2,30.34,ESE,103,2.0,3.0,74,0.02,,---,0.09,VWS V14.01,2013-01-17 23:00:00,
2013-01-17 17:01:00,44.9,37.1,30.34,NNE,15,4.0,4.0,74,0.02,,---,0.09,VWS V14.01,2013-01-17 23:01:00,
2013-01-17 17:04:00,44.9,37.1,30.35,NNW,346,1.0,4.0,74,0.02,,---,0.09,VWS V14.01,2013-01-17 23:04:00,
2013-01-17 17:05:00,44.8,37.0,30.35,NNW,347,1.0,4.0,74,0.02,,---,0.09,VWS V14.01,2013-01-17 23:05:00,
2013-01-17 17:06:00,44.8,37.4,30.35,NNE,17,2.0,4.0,75,0.02,,---,0.09,VWS V14.01,2013-01-17 23:06:00,
2013-01-17 17:09:00,44.7,37.3,30.35,NNW,346,0.0,4.0,75,0.02,,---,0.09,VWS V14.01,2013-01-17 23:09:00,
2013-01-17 17:10:00,44.6,37.2,30.35,NNW,344,1.0,4.0,75,0.02,,---,0.09,VWS V14.01,2013-01-17 23:10:00,
2013-01-17 17:11:00,44.6,37.2,30.35,NNW,344,1.0,4.0,75,0.02,,---,0.09,VWS V14.01,2013-01-17 23:11:00,
2013-01-17 17:14:00,44.4,37.0,30.35,NE,56,3.0,4.0,75,0.02,,---,0.09,VWS V14.01,2013-01-17 23:14:00,
2013-01-17 17:15:00,44.4,37.3,30.35,NNW,330,0.0,4.0,76,0.02,,---,0.09,VWS V14.01,2013-01-17 23:15:00,
2013-01-17 17:16:00,44.3,37.2,30.35,NNW,333,2.0,2.0,76,0.01,,---,0.09,VWS V14.01,2013-01-17 23:16:00,
2013-01-17 17:19:00,44.2,37.1,30.35,NE,35,2.0,5.0,76,0.01,,---,0.09,VWS V14.01,2013-01-17 23:19:00,
2013-01-17 17:20:00,44.2,37.1,30.35,North,354,1.0,5.0,76,0.01,,---,0.09,VWS V14.01,2013-01-17 23:20:00,
2013-01-17 17:21:00,44.2,37.1,30.35,North,354,0.0,5.0,76,0.01,,---,0.09,VWS V14.01,2013-01-17 23:21:00,
2013-01-17 17:24:00,44.0,37.3,30.36,NW,324,0.0,5.0,77,0.01,,---,0.09,VWS V14.01,2013-01-17 23:24:00,
2013-01-17 17:25:00,44.0,37.3,30.36,North,360,2.0,5.0,77,0.01,,---,0.09,VWS V14.01,2013-01-17 23:25:00,
2013-01-17 17:26:00,43.9,37.2,30.36,North,359,0.0,5.0,77,0.01,,---,0.09,VWS V14.01,2013-01-17 23:26:00,
2013-01-17 17:27:00,43.9,37.2,30.36,ENE,57,1.0,5.0,77,0.01,,---,0.09,VWS V14.01,2013-01-17 23:27:00,
2013-01-17 17:29:00,43.8,37.1,30.36,NNW,339,0.0,6.0,77,0.01,,---,0.09,VWS V14.01,2013-01-17 23:29:00,
2013-01-17 17:30:00,43.9,37.2,30.36,NW,316,2.0,6.0,77,0.01,,---,0.09,VWS V14.01,2013-01-17 23:30:00,
2013-01-17 17:31:00,43.9,37.5,30.36,North,360,2.0,2.0,78,0.01,,---,0.09,VWS V14.01,2013-01-17 23:31:00,
2013-01-17 17:32:00,43.9,37.5,30.36,North,359,0.0,2.0,78,0.01,,---,0.09,VWS V14.01,2013-01-17 23:32:00,
2013-01-17 17:34:00,43.8,37.4,30.36,North,1,1.0,4.0,78,0.02,,---,0.10,VWS V14.01,2013-01-17 23:34:00,
2013-01-17 17:35:00,43.8,37.4,30.36,North,353,0.0,4.0,78,0.02,,---,0.10,VWS V14.01,2013-01-17 23:35:00,
2013-01-17 17:36:00,43.7,37.3,30.37,NNE,17,2.0,4.0,78,0.02,,---,0.10,VWS V14.01,2013-01-17 23:36:00,
2013-01-17 17:37:00,43.7,37.3,30.36,NNW,330,3.0,4.0,78,0.02,,---,0.10,VWS V14.01,2013-01-17 23:37:00,
2013-01-17 17:39:00,43.7,37.3,30.37,NNW,330,2.0,4.0,78,0.02,,---,0.10,VWS V14.01,2013-01-17 23:39:00,
2013-01-17 17:40:00,43.6,37.2,30.37,NNE,21,2.0,5.0,78,0.02,,---,0.10,VWS V14.01,2013-01-17 23:40:00,
2013-01-17 17:41:00,43.7,37.3,30.37,North,360,1.0,5.0,78,0.02,,---,0.10,VWS V14.01,2013-01-17 23:41:00,
2013-01-17 17:42:00,43.6,37.2,30.37,North,357,1.0,5.0,78,0.02,,---,0.10,VWS V14.01,2013-01-17 23:42:00,
2013-01-17 17:44:00,43.6,37.2,30.37,NNE,14,3.0,5.0,78,0.02,,---,0.10,VWS V14.01,2013-01-17 23:44:00,
2013-01-17 17:45:00,43.6,37.2,30.37,NW,309,1.0,5.0,78,0.02,,---,0.10,VWS V14.01,2013-01-17 23:45:00,
2013-01-17 17:46:00,43.6,37.2,30.37,NNW,329,1.0,1.0,78,0.01,,---,0.10,VWS V14.01,2013-01-17 23:46:00,
2013-01-17 17:47:00,43.6,37.2,30.37,NNW,332,2.0,2.0,78,0.01,,---,0.10,VWS V14.01,2013-01-17 23:47:00,
2013-01-17 17:49:00,43.5,37.1,30.37,NNW,328,0.0,2.0,78,0.01,,---,0.10,VWS V14.01,2013-01-17 23:49:00,
2013-01-17 17:51:00,43.5,37.1,30.37,North,360,2.0,2.0,78,0.01,,---,0.10,VWS V14.01,2013-01-17 23:51:00,
2013-01-17 17:52:00,43.5,37.1,30.37,North,352,0.0,2.0,78,0.01,,---,0.10,VWS V14.01,2013-01-17 23:52:00,
2013-01-17 17:55:00,43.4,37.0,30.38,NNW,347,1.0,2.0,78,0.01,,---,0.10,VWS V14.01,2013-01-17 23:55:00,
2013-01-17 17:56:00,43.3,36.9,30.38,North,349,1.0,2.0,78,0.01,,---,0.10,VWS V14.01,2013-01-17 23:56:00,
2013-01-17 17:57:00,43.3,36.9,30.38,NNW,347,0.0,2.0,78,0.01,,---,0.10,VWS V14.01,2013-01-17 23:57:00,
2013-01-17 18:00:00,43.2,36.8,30.38,North,349,1.0,4.0,78,0.01,,---,0.10,VWS V14.01,2013-01-18 00:00:00,
2013-01-17 18:01:00,43.2,36.8,30.38,North,3,1.0,4.0,78,0.01,,---,0.10,VWS V14.01,2013-01-18 00:01:00,
2013-01-17 18:02:00,43.1,36.7,30.38,North,3,0.0,1.0,78,0.01,,---,0.10,VWS V14.01,2013-01-18 00:02:00,
2013-01-17 18:05:00,43.0,36.9,30.38,NNW,343,0.0,2.0,79,0.01,,---,0.10,VWS V14.01,2013-01-18 00:05:00,
2013-01-17 18:06:00,43.0,36.9,30.38,NNW,343,0.0,2.0,79,0.01,,---,0.10,VWS V14.01,2013-01-18 00:06:00,
2013-01-17 18:07:00,42.9,36.8,30.38,NNW,343,0.0,2.0,79,0.01,,---,0.10,VWS V14.01,2013-01-18 00:07:00,
2013-01-17 18:10:00,42.8,36.8,30.39,North,351,1.0,2.0,79,0.01,,---,0.10,VWS V14.01,2013-01-18 00:10:00,
2013-01-17 18:11:00,42.7,36.7,30.39,North,8,1.0,2.0,79,0.01,,---,0.10,VWS V14.01,2013-01-18 00:11:00,
2013-01-17 18:12:00,42.7,36.7,30.39,NNW,327,2.0,3.0,79,0.01,,---,0.10,VWS V14.01,2013-01-18 00:12:00,
2013-01-17 18:15:00,42.7,36.7,30.39,North,6,0.0,3.0,79,0.01,,---,0.10,VWS V14.01,2013-01-18 00:15:00,
2013-01-17 18:16:00,42.6,36.5,30.39,NNE,22,3.0,3.0,79,0.01,,---,0.10,VWS V14.01,2013-01-18 00:16:00,
2013-01-17 18:17:00,42.6,36.5,30.39,North,6,1.0,3.0,79,0.01,,---,0.10,VWS V14.01,2013-01-18 00:17:00,
2013-01-17 18:18:00,42.6,36.9,30.39,North,360,2.0,3.0,80,0.01,,---,0.10,VWS V14.01,2013-01-18 00:18:00,
2013-01-17 18:20:00,42.5,36.8,30.39,North,8,0.0,3.0,80,0.01,,---,0.10,VWS V14.01,2013-01-18 00:20:00,
2013-01-17 18:21:00,42.5,36.8,30.39,North,349,2.0,3.0,80,0.01,,---,0.10,VWS V14.01,2013-01-18 00:21:00,
2013-01-17 18:22:00,42.5,36.8,30.39,NNW,344,0.0,5.0,80,0.01,,---,0.10,VWS V14.01,2013-01-18 00:22:00,
2013-01-17 18:23:00,42.4,36.7,30.39,NNW,340,0.0,5.0,80,0.01,,---,0.10,VWS V14.01,2013-01-18 00:23:00,
2013-01-17 18:25:00,42.4,36.7,30.39,NNE,13,2.0,5.0,80,0.01,,---,0.10,VWS V14.01,2013-01-18 00:25:00,
2013-01-17 18:26:00,42.4,36.7,30.39,North,357,2.0,5.0,80,0.01,,---,0.10,VWS V14.01,2013-01-18 00:26:00,
2013-01-17 18:27:00,42.3,36.6,30.39,North,356,1.0,5.0,80,0.01,,---,0.10,VWS V14.01,2013-01-18 00:27:00,
2013-01-17 18:28:00,42.3,36.6,30.39,NNW,346,1.0,5.0,80,0.01,,---,0.10,VWS V14.01,2013-01-18 00:28:00,
2013-01-17 18:30:00,42.2,36.5,30.39,NW,319,1.0,5.0,80,0.01,,---,0.10,VWS V14.01,2013-01-18 00:30:00,
2013-01-17 18:31:00,42.2,36.5,30.39,NE,35,5.0,5.0,80,0.01,,---,0.10,VWS V14.01,2013-01-18 00:31:00,
2013-01-17 18:32:00,42.2,36.5,30.39,North,353,2.0,5.0,80,0.01,,---,0.10,VWS V14.01,2013-01-18 00:32:00,
2013-01-17 18:33:00,42.2,36.5,30.39,North,357,0.0,5.0,80,0.01,,---,0.10,VWS V14.01,2013-01-18 00:33:00,
2013-01-17 18:35:00,42.2,36.5,30.40,NE,53,4.0,7.0,80,0.01,,---,0.10,VWS V14.01,2013-01-18 00:35:00,
2013-01-17 18:36:00,42.1,36.4,30.40,North,4,2.0,7.0,80,0.01,,---,0.10,VWS V14.01,2013-01-18 00:36:00,
2013-01-17 18:37:00,42.2,36.5,30.40,NNW,347,1.0,7.0,80,0.01,,---,0.10,VWS V14.01,2013-01-18 00:37:00,
2013-01-17 18:38:00,42.2,36.5,30.40,NE,49,2.0,7.0,80,0.01,,---,0.10,VWS V14.01,2013-01-18 00:38:00,
2013-01-17 18:40:00,42.1,36.4,30.40,NNW,336,0.0,7.0,80,0.01,,---,0.10,VWS V14.01,2013-01-18 00:40:00,
2013-01-17 18:41:00,42.0,36.3,30.40,NNW,337,1.0,7.0,80,0.01,,---,0.10,VWS V14.01,2013-01-18 00:41:00,
2013-01-17 18:42:00,42.0,36.3,30.40,NNW,337,0.0,7.0,80,0.01,,---,0.10,VWS V14.01,2013-01-18 00:42:00,
2013-01-17 18:43:00,42.0,36.3,30.40,NE,54,3.0,7.0,80,0.01,,---,0.10,VWS V14.01,2013-01-18 00:43:00,
2013-01-17 18:45:00,41.9,36.2,30.40,North,10,1.0,7.0,80,0.01,,---,0.10,VWS V14.01,2013-01-18 00:45:00,
2013-01-17 18:47:00,41.9,36.2,30.41,North,10,0.0,0.0,80,0.00,,---,0.10,VWS V14.01,2013-01-18 00:47:00,
2013-01-17 18:48:00,41.8,36.1,30.41,North,350,1.0,2.0,80,0.00,,---,0.10,VWS V14.01,2013-01-18 00:48:00,
2013-01-17 18:50:00,41.7,36.3,30.41,North,350,0.0,2.0,81,0.00,,---,0.10,VWS V14.01,2013-01-18 00:50:00,
2013-01-17 18:52:00,41.5,36.1,30.41,North,351,0.0,2.0,81,0.00,,---,0.10,VWS V14.01,2013-01-18 00:52:00,
2013-01-17 18:53:00,41.5,36.1,30.41,North,354,2.0,2.0,81,0.00,,---,0.10,VWS V14.01,2013-01-18 00:53:00,
2013-01-17 18:55:00,41.3,35.9,30.41,NNW,344,0.0,4.0,81,0.00,,---,0.10,VWS V14.01,2013-01-18 00:55:00,
2013-01-17 18:57:00,41.3,35.9,30.41,North,353,0.0,4.0,81,0.00,,---,0.10,VWS V14.01,2013-01-18 00:57:00,
2013-01-17 18:58:00,41.3,36.2,30.41,North,353,0.0,4.0,82,0.00,,---,0.10,VWS V14.01,2013-01-18 00:58:00,
2013-01-17 18:59:00,41.2,36.1,30.41,North,8,0.0,4.0,82,0.00,,---,0.10,VWS V14.01,2013-01-18 00:59:00,
2013-01-17 19:01:00,41.1,36.0,30.41,North,6,2.0,4.0,82,0.00,,---,0.10,VWS V14.01,2013-01-18 01:01:00,
2013-01-17 19:02:00,41.1,35.7,30.41,North,8,2.0,6.0,81,0.00,,---,0.10,VWS V14.01,2013-01-18 01:02:00,
2013-01-17 19:03:00,41.1,35.7,30.41,North,10,2.0,6.0,81,0.00,,---,0.10,VWS V14.01,2013-01-18 01:03:00,
2013-01-17 19:04:00,41.1,35.7,30.41,North,6,1.0,6.0,81,0.00,,---,0.10,VWS V14.01,2013-01-18 01:04:00,
2013-01-17 19:06:00,41.1,35.7,30.42,NE,34,2.0,6.0,81,0.00,,---,0.10,VWS V14.01,2013-01-18 01:06:00,
2013-01-17 19:07:00,41.1,35.7,30.42,NNW,335,1.0,6.0,81,0.00,,---,0.10,VWS V14.01,2013-01-18 01:07:00,
2013-01-17 19:08:00,41.1,35.7,30.42,NNW,335,1.0,6.0,81,0.01,,---,0.11,VWS V14.01,2013-01-18 01:08:00,
2013-01-17 19:09:00,41.0,35.6,30.42,NNW,332,1.0,6.0,81,0.01,,---,0.11,VWS V14.01,2013-01-18 01:09:00,
2013-01-17 19:11:00,40.9,35.5,30.42,North,6,0.0,6.0,81,0.01,,---,0.11,VWS V14.01,2013-01-18 01:11:00,
2013-01-17 19:12:00,40.9,35.5,30.42,NNE,28,2.0,6.0,81,0.01,,---,0.11,VWS V14.01,2013-01-18 01:12:00,
2013-01-17 19:13:00,40.9,35.5,30.42,North,4,1.0,6.0,81,0.01,,---,0.11,VWS V14.01,2013-01-18 01:13:00,
2013-01-17 19:14:00,40.9,35.5,30.42,NW,325,1.0,6.0,81,0.01,,---,0.11,VWS V14.01,2013-01-18 01:14:00,
2013-01-17 19:16:00,40.9,35.5,30.42,North,6,0.0,2.0,81,0.01,,---,0.11,VWS V14.01,2013-01-18 01:16:00,
2013-01-17 19:17:00,40.8,35.4,30.42,NNW,347,1.0,2.0,81,0.01,,---,0.11,VWS V14.01,2013-01-18 01:17:00,
2013-01-17 19:18:00,40.8,35.4,30.42,NNW,347,0.0,2.0,81,0.01,,---,0.11,VWS V14.01,2013-01-18 01:18:00,
2013-01-17 19:19:00,40.8,35.4,30.42,North,349,1.0,2.0,81,0.01,,---,0.11,VWS V14.01,2013-01-18 01:19:00,
2013-01-17 19:21:00,40.7,35.3,30.42,NNW,339,0.0,2.0,81,0.01,,---,0.11,VWS V14.01,2013-01-18 01:21:00,
2013-01-17 19:22:00,40.6,35.2,30.42,North,1,2.0,2.0,81,0.01,,---,0.11,VWS V14.01,2013-01-18 01:22:00,
2013-01-17 19:23:00,40.6,35.2,30.42,NNE,25,2.0,2.0,81,0.01,,---,0.11,VWS V14.01,2013-01-18 01:23:00,
2013-01-17 19:24:00,40.6,35.2,30.42,NNW,336,0.0,3.0,81,0.01,,---,0.11,VWS V14.01,2013-01-18 01:24:00,
2013-01-17 19:26:00,40.5,35.1,30.42,NNW,337,0.0,3.0,81,0.01,,---,0.11,VWS V14.01,2013-01-18 01:26:00,
2013-01-17 19:27:00,40.5,35.1,30.42,NNW,344,0.0,3.0,81,0.01,,---,0.11,VWS V14.01,2013-01-18 01:27:00,
2013-01-17 19:28:00,40.4,35.3,30.42,NNW,343,0.0,3.0,82,0.01,,---,0.11,VWS V14.01,2013-01-18 01:28:00,
2013-01-17 19:29:00,40.4,35.3,30.42,NNW,344,0.0,3.0,82,0.01,,---,0.11,VWS V14.01,2013-01-18 01:29:00,
2013-01-17 19:31:00,40.3,35.2,30.42,North,6,0.0,1.0,82,0.01,,---,0.11,VWS V14.01,2013-01-18 01:31:00,
2013-01-17 19:32:00,40.2,35.2,30.42,North,4,0.0,1.0,82,0.01,,---,0.11,VWS V14.01,2013-01-18 01:32:00,
2013-01-17 19:33:00,40.2,35.2,30.42,North,3,0.0,1.0,82,0.01,,---,0.11,VWS V14.01,2013-01-18 01:33:00,
2013-01-17 19:34:00,40.1,35.1,30.43,North,3,0.0,1.0,82,0.01,,---,0.11,VWS V14.01,2013-01-18 01:34:00,
2013-01-17 19:36:00,40.1,35.1,30.42,NE,38,0.0,4.0,82,0.01,,---,0.11,VWS V14.01,2013-01-18 01:36:00,
2013-01-17 19:38:00,40.1,35.1,30.43,North,3,2.0,4.0,82,0.01,,---,0.11,VWS V14.01,2013-01-18 01:38:00,
2013-01-17 19:40:00,40.0,35.0,30.43,NW,319,1.0,4.0,82,0.01,,---,0.11,VWS V14.01,2013-01-18 01:40:00,
2013-01-17 19:41:00,39.9,34.9,30.43,NW,319,0.0,4.0,82,0.01,,---,0.11,VWS V14.01,2013-01-18 01:41:00,
2013-01-17 19:43:00,39.9,34.9,30.43,NW,319,0.0,4.0,82,0.01,,---,0.11,VWS V14.01,2013-01-18 01:43:00,
2013-01-17 19:45:00,39.8,34.8,30.43,NE,44,1.0,4.0,82,0.01,,---,0.11,VWS V14.01,2013-01-18 01:45:00,
2013-01-17 19:47:00,39.7,34.7,30.43,NNE,17,1.0,2.0,82,0.01,,---,0.11,VWS V14.01,2013-01-18 01:47:00,
2013-01-17 19:48:00,39.7,34.7,30.43,North,349,1.0,5.0,82,0.01,,---,0.11,VWS V14.01,2013-01-18 01:48:00,
2013-01-17 19:50:00,39.8,34.5,30.43,NNE,22,1.0,5.0,81,0.01,,---,0.11,VWS V14.01,2013-01-18 01:50:00,
2013-01-17 19:52:00,39.8,34.5,30.43,NNW,345,2.0,5.0,81,0.01,,---,0.11,VWS V14.01,2013-01-18 01:52:00,
2013-01-17 19:53:00,39.7,34.4,30.43,North,351,0.0,5.0,81,0.01,,---,0.11,VWS V14.01,2013-01-18 01:53:00,
2013-01-17 19:55:00,39.7,34.4,30.43,North,350,0.0,5.0,81,0.01,,---,0.11,VWS V14.01,2013-01-18 01:55:00,
2013-01-17 19:57:00,39.6,34.3,30.43,NNW,328,1.0,5.0,81,0.01,,---,0.11,VWS V14.01,2013-01-18 01:57:00,
2013-01-17 19:58:00,39.5,34.2,30.43,NNW,345,0.0,5.0,81,0.01,,---,0.11,VWS V14.01,2013-01-18 01:58:00,
2013-01-17 19:59:00,39.5,34.2,30.43,NNW,344,1.0,5.0,81,0.01,,---,0.11,VWS V14.01,2013-01-18 01:59:00,
2013-01-17 20:00:00,39.4,34.1,30.43,NNW,343,0.0,5.0,81,0.01,,---,0.11,VWS V14.01,2013-01-18 02:00:00,
2013-01-17 20:02:00,39.3,34.0,30.44,North,4,0.0,2.0,81,0.01,,---,0.11,VWS V14.01,2013-01-18 02:02:00,
2013-01-17 20:03:00,39.3,34.0,30.44,NNW,345,0.0,2.0,81,0.01,,---,0.11,VWS V14.01,2013-01-18 02:03:00,
2013-01-17 20:04:00,39.3,34.0,30.44,NNE,27,2.0,2.0,81,0.01,,---,0.11,VWS V14.01,2013-01-18 02:04:00,
2013-01-17 20:05:00,39.2,33.9,30.44,NNW,333,1.0,2.0,81,0.01,,---,0.11,VWS V14.01,2013-01-18 02:05:00,
2013-01-17 20:07:00,39.2,33.9,30.44,NNW,337,1.0,2.0,81,0.01,,---,0.11,VWS V14.01,2013-01-18 02:07:00,
2013-01-17 20:09:00,39.2,33.9,30.44,NNW,337,0.0,2.0,81,0.01,,---,0.11,VWS V14.01,2013-01-18 02:09:00,
2013-01-17 20:10:00,39.1,33.8,30.44,North,359,0.0,2.0,81,0.01,,---,0.11,VWS V14.01,2013-01-18 02:10:00,
2013-01-17 20:12:00,39.1,33.8,30.44,North,349,1.0,2.0,81,0.01,,---,0.11,VWS V14.01,2013-01-18 02:12:00,
2013-01-17 20:14:00,39.0,33.7,30.44,NNE,31,2.0,2.0,81,0.01,,---,0.11,VWS V14.01,2013-01-18 02:14:00,
2013-01-17 20:16:00,39.0,33.4,30.44,NE,51,0.0,1.0,80,0.00,,---,0.11,VWS V14.01,2013-01-18 02:16:00,
2013-01-17 20:17:00,39.0,33.4,30.44,North,4,0.0,2.0,80,0.00,,---,0.11,VWS V14.01,2013-01-18 02:17:00,
2013-01-17 20:19:00,39.0,33.4,30.44,North,354,2.0,2.0,80,0.00,,---,0.11,VWS V14.01,2013-01-18 02:19:00,
2013-01-17 20:21:00,38.9,33.3,30.44,North,353,1.0,2.0,80,0.00,,---,0.11,VWS V14.01,2013-01-18 02:21:00,
2013-01-17 20:22:00,38.9,33.3,30.44,North,353,1.0,2.0,80,0.00,,---,0.11,VWS V14.01,2013-01-18 02:22:00,
2013-01-17 20:24:00,38.8,33.2,30.44,North,353,0.0,2.0,80,0.00,,---,0.11,VWS V14.01,2013-01-18 02:24:00,
2013-01-17 20:25:00,38.8,33.2,30.45,North,353,0.0,2.0,80,0.00,,---,0.11,VWS V14.01,2013-01-18 02:25:00,
2013-01-17 20:27:00,38.7,33.1,30.45,North,354,1.0,2.0,80,0.00,,---,0.11,VWS V14.01,2013-01-18 02:27:00,
2013-01-17 20:29:00,38.7,33.1,30.45,NE,51,1.0,2.0,80,0.00,,---,0.11,VWS V14.01,2013-01-18 02:29:00,
2013-01-17 20:30:00,38.7,33.1,30.45,NE,35,0.0,2.0,80,0.00,,---,0.11,VWS V14.01,2013-01-18 02:30:00,
2013-01-17 20:32:00,38.6,33.0,30.45,North,352,0.0,0.0,80,0.00,,---,0.11,VWS V14.01,2013-01-18 02:32:00,
2013-01-17 20:34:00,38.5,32.9,30.45,NNE,25,0.0,3.0,80,0.00,,---,0.11,VWS V14.01,2013-01-18 02:34:00,
2013-01-17 20:35:00,38.4,32.8,30.45,NNW,328,2.0,3.0,80,0.00,,---,0.11,VWS V14.01,2013-01-18 02:35:00,
2013-01-17 20:37:00,38.4,33.1,30.45,NNW,329,1.0,3.0,81,0.00,,---,0.11,VWS V14.01,2013-01-18 02:37:00,
2013-01-17 20:39:00,38.3,32.7,30.45,NNE,20,0.0,3.0,80,0.00,,---,0.11,VWS V14.01,2013-01-18 02:39:00,
2013-01-17 20:40:00,38.3,32.7,30.45,North,8,0.0,3.0,80,0.00,,---,0.11,VWS V14.01,2013-01-18 02:40:00,
2013-01-17 20:42:00,38.3,32.7,30.45,North,353,1.0,3.0,80,0.00,,---,0.11,VWS V14.01,2013-01-18 02:42:00,
2013-01-17 20:44:00,38.2,32.6,30.45,NNE,22,1.0,3.0,80,0.00,,---,0.11,VWS V14.01,2013-01-18 02:44:00,
2013-01-17 20:45:00,38.2,32.6,30.45,NNE,18,1.0,3.0,80,0.00,,---,0.11,VWS V14.01,2013-01-18 02:45:00,
2013-01-17 20:47:00,38.2,32.6,30.45,NNW,335,2.0,3.0,80,0.00,,---,0.11,VWS V14.01,2013-01-18 02:47:00,
2013-01-17 20:48:00,38.1,32.5,30.45,North,349,1.0,3.0,80,0.00,,---,0.11,VWS V14.01,2013-01-18 02:48:00,
2013-01-17 20:49:00,38.1,32.8,30.45,North,349,0.0,3.0,81,0.00,,---,0.11,VWS V14.01,2013-01-18 02:49:00,
2013-01-17 20:50:00,38.1,32.8,30.46,North,3,1.0,3.0,81,0.00,,---,0.11,VWS V14.01,2013-01-18 02:50:00,
2013-01-17 20:52:00,38.1,32.8,30.46,North,3,0.0,3.0,81,0.00,,---,0.11,VWS V14.01,2013-01-18 02:52:00,
2013-01-17 20:53:00,38.1,32.8,30.46,North,349,1.0,3.0,81,0.00,,---,0.11,VWS V14.01,2013-01-18 02:53:00,
2013-01-17 20:54:00,38.1,32.8,30.46,NW,304,2.0,3.0,81,0.00,,---,0.11,VWS V14.01,2013-01-18 02:54:00,
2013-01-17 20:56:00,38.0,32.7,30.46,NW,309,0.0,3.0,81,0.00,,---,0.11,VWS V14.01,2013-01-18 02:56:00,
2013-01-17 20:57:00,38.0,32.7,30.46,NW,309,1.0,3.0,81,0.00,,---,0.11,VWS V14.01,2013-01-18 02:57:00,
2013-01-17 20:58:00,37.9,32.6,30.46,NW,309,0.0,3.0,81,0.00,,---,0.11,VWS V14.01,2013-01-18 02:58:00,
2013-01-17 20:59:00,37.9,32.6,30.46,NW,309,0.0,3.0,81,0.00,,---,0.11,VWS V14.01,2013-01-18 02:59:00,
2013-01-17 21:01:00,37.8,32.5,30.46,NNW,344,0.0,0.0,81,0.00,,---,0.11,VWS V14.01,2013-01-18 03:01:00,
2013-01-17 21:02:00,37.7,32.4,30.46,NNW,345,0.0,0.0,81,0.00,,---,0.11,VWS V14.01,2013-01-18 03:02:00,
2013-01-17 21:03:00,37.7,32.4,30.46,NNW,345,0.0,0.0,81,0.00,,---,0.11,VWS V14.01,2013-01-18 03:03:00,
2013-01-17 21:04:00,37.6,32.3,30.46,NNW,345,1.0,1.0,81,0.00,,---,0.11,VWS V14.01,2013-01-18 03:04:00,
2013-01-17 21:06:00,37.5,32.2,30.46,NNW,345,0.0,1.0,81,0.00,,---,0.11,VWS V14.01,2013-01-18 03:06:00,
2013-01-17 21:07:00,37.5,32.2,30.46,NW,315,2.0,2.0,81,0.00,,---,0.11,VWS V14.01,2013-01-18 03:07:00,
2013-01-17 21:08:00,37.5,32.2,30.47,NW,315,0.0,2.0,81,0.00,,---,0.11,VWS V14.01,2013-01-18 03:08:00,
2013-01-17 21:09:00,37.4,32.4,30.47,NW,315,0.0,2.0,82,0.00,,---,0.11,VWS V14.01,2013-01-18 03:09:00,
2013-01-17 21:11:00,37.3,32.3,30.46,NW,315,0.0,2.0,82,0.00,,---,0.11,VWS V14.01,2013-01-18 03:11:00,
2013-01-17 21:12:00,37.3,32.3,30.47,NNE,25,1.0,2.0,82,0.00,,---,0.11,VWS V14.01,2013-01-18 03:12:00,
2013-01-17 21:13:00,37.3,32.3,30.46,North,3,0.0,2.0,82,0.00,,---,0.11,VWS V14.01,2013-01-18 03:13:00,
2013-01-17 21:14:00,37.3,32.3,30.47,North,3,0.0,2.0,82,0.00,,---,0.11,VWS V14.01,2013-01-18 03:14:00,
2013-01-17 21:16:00,37.3,32.3,30.47,North,3,0.0,0.0,82,0.00,,---,0.11,VWS V14.01,2013-01-18 03:16:00,
2013-01-17 21:17:00,37.2,32.2,30.47,NW,325,1.0,1.0,82,0.00,,---,0.11,VWS V14.01,2013-01-18 03:17:00,
2013-01-17 21:18:00,37.2,32.2,30.47,NW,325,0.0,1.0,82,0.00,,---,0.11,VWS V14.01,2013-01-18 03:18:00,
2013-01-17 21:19:00,37.2,32.2,30.47,NW,325,0.0,1.0,82,0.00,,---,0.11,VWS V14.01,2013-01-18 03:19:00,
2013-01-17 21:21:00,37.1,32.1,30.47,NW,325,0.0,1.0,82,0.00,,---,0.11,VWS V14.01,2013-01-18 03:21:00,
2013-01-17 21:23:00,37.0,32.0,30.47,NW,325,0.0,1.0,82,0.00,,---,0.11,VWS V14.01,2013-01-18 03:23:00,
2013-01-17 21:24:00,37.0,32.0,30.47,NNE,25,0.0,1.0,82,0.00,,---,0.11,VWS V14.01,2013-01-18 03:24:00,
2013-01-17 21:25:00,37.0,32.0,30.47,NNE,25,0.0,1.0,82,0.00,,---,0.11,VWS V14.01,2013-01-18 03:25:00,
2013-01-17 21:26:00,36.9,31.9,30.47,NNE,26,0.0,1.0,82,0.00,,---,0.11,VWS V14.01,2013-01-18 03:26:00,
2013-01-17 21:28:00,36.8,31.8,30.47,NNE,25,0.0,1.0,82,0.00,,---,0.11,VWS V14.01,2013-01-18 03:28:00,
2013-01-17 21:29:00,36.8,31.8,30.47,NNE,26,0.0,1.0,82,0.00,,---,0.11,VWS V14.01,2013-01-18 03:29:00,
2013-01-17 21:30:00,36.7,31.7,30.47,NNE,25,0.0,1.0,82,0.00,,---,0.11,VWS V14.01,2013-01-18 03:30:00,
2013-01-17 21:32:00,36.6,31.6,30.47,NNE,24,0.0,0.0,82,0.00,,---,0.11,VWS V14.01,2013-01-18 03:32:00,
2013-01-17 21:33:00,36.5,31.8,30.47,WNW,296,0.0,0.0,83,0.00,,---,0.11,VWS V14.01,2013-01-18 03:33:00,
2013-01-17 21:34:00,36.4,31.7,30.47,WNW,296,0.0,0.0,83,0.00,,---,0.11,VWS V14.01,2013-01-18 03:34:00,
2013-01-17 21:35:00,36.3,31.6,30.47,WNW,295,0.0,0.0,83,0.00,,---,0.11,VWS V14.01,2013-01-18 03:35:00,
2013-01-17 21:37:00,36.2,31.5,30.48,WNW,298,0.0,1.0,83,0.00,,---,0.11,VWS V14.01,2013-01-18 03:37:00,
2013-01-17 21:38:00,36.1,31.5,30.48,WNW,298,0.0,1.0,83,0.00,,---,0.11,VWS V14.01,2013-01-18 03:38:00,
2013-01-17 21:39:00,36.0,31.4,30.48,WNW,298,0.0,1.0,83,0.00,,---,0.11,VWS V14.01,2013-01-18 03:39:00,
2013-01-17 21:40:00,35.9,31.5,30.48,WNW,298,0.0,1.0,84,0.00,,---,0.11,VWS V14.01,2013-01-18 03:40:00,
2013-01-17 21:42:00,35.9,31.5,30.48,WNW,299,0.0,1.0,84,0.00,,---,0.11,VWS V14.01,2013-01-18 03:42:00,
2013-01-17 21:43:00,35.8,31.5,30.47,WNW,299,0.0,1.0,84,0.00,,---,0.11,VWS V14.01,2013-01-18 03:43:00,
2013-01-17 21:44:00,35.8,31.5,30.47,WNW,298,0.0,1.0,84,0.00,,---,0.11,VWS V14.01,2013-01-18 03:44:00,
2013-01-17 21:45:00,35.8,31.5,30.47,WNW,299,0.0,1.0,84,0.00,,---,0.11,VWS V14.01,2013-01-18 03:45:00,
2013-01-17 21:47:00,35.8,31.5,30.47,WNW,300,0.0,1.0,84,0.00,,---,0.11,VWS V14.01,2013-01-18 03:47:00,
2013-01-17 21:48:00,35.8,31.5,30.47,WNW,299,0.0,1.0,84,0.00,,---,0.11,VWS V14.01,2013-01-18 03:48:00,
2013-01-17 21:49:00,35.8,31.5,30.47,NW,323,0.0,1.0,84,0.00,,---,0.11,VWS V14.01,2013-01-18 03:49:00,
2013-01-17 21:50:00,35.8,31.5,30.47,NW,323,0.0,1.0,84,0.00,,---,0.11,VWS V14.01,2013-01-18 03:50:00,
2013-01-17 21:52:00,35.9,31.5,30.47,North,353,0.0,1.0,84,0.00,,---,0.11,VWS V14.01,2013-01-18 03:52:00,
2013-01-17 21:53:00,35.9,31.5,30.47,North,352,0.0,1.0,84,0.00,,---,0.11,VWS V14.01,2013-01-18 03:53:00,
2013-01-17 21:54:00,35.9,31.5,30.47,North,352,0.0,1.0,84,0.00,,---,0.11,VWS V14.01,2013-01-18 03:54:00,
2013-01-17 21:55:00,35.9,31.5,30.47,North,352,0.0,1.0,84,0.00,,---,0.11,VWS V14.01,2013-01-18 03:55:00,
2013-01-17 21:57:00,35.9,31.5,30.47,North,352,0.0,1.0,84,0.00,,---,0.11,VWS V14.01,2013-01-18 03:57:00,
2013-01-17 21:58:00,35.8,31.5,30.47,North,352,0.0,1.0,84,0.00,,---,0.11,VWS V14.01,2013-01-18 03:58:00,
2013-01-17 22:00:00,35.7,31.4,30.47,NNW,347,0.0,1.0,84,0.00,,---,0.11,VWS V14.01,2013-01-18 04:00:00,
2013-01-17 22:02:00,35.7,31.4,30.48,NNW,348,0.0,0.0,84,0.00,,---,0.11,VWS V14.01,2013-01-18 04:02:00,
2013-01-17 22:04:00,35.6,31.2,30.48,NNW,347,0.0,1.0,84,0.00,,---,0.11,VWS V14.01,2013-01-18 04:04:00,
2013-01-17 22:05:00,35.6,31.2,30.48,NNW,347,0.0,1.0,84,0.00,,---,0.11,VWS V14.01,2013-01-18 04:05:00,
2013-01-17 22:07:00,35.6,31.2,30.48,NNW,347,0.0,1.0,84,0.00,,---,0.11,VWS V14.01,2013-01-18 04:07:00,
2013-01-17 22:09:00,35.5,31.1,30.48,NNW,348,0.0,1.0,84,0.00,,---,0.11,VWS V14.01,2013-01-18 04:09:00,
2013-01-17 22:10:00,35.5,31.1,30.47,NNW,347,0.0,1.0,84,0.00,,---,0.11,VWS V14.01,2013-01-18 04:10:00,
2013-01-17 22:11:00,35.5,31.1,30.47,NNW,347,0.0,1.0,84,0.00,,---,0.11,VWS V14.01,2013-01-18 04:11:00,
2013-01-17 22:12:00,35.5,31.1,30.47,NNW,344,0.0,1.0,84,0.00,,---,0.11,VWS V14.01,2013-01-18 04:12:00,
2013-01-17 22:14:00,35.5,31.1,30.47,NNW,340,0.0,1.0,84,0.00,,---,0.11,VWS V14.01,2013-01-18 04:14:00,
2013-01-17 22:15:00,35.5,31.1,30.48,NNW,339,0.0,1.0,84,0.00,,---,0.11,VWS V14.01,2013-01-18 04:15:00,
2013-01-17 22:16:00,35.5,31.1,30.48,NNW,339,0.0,0.0,84,0.00,,---,0.11,VWS V14.01,2013-01-18 04:16:00,
2013-01-17 22:17:00,35.4,31.1,30.48,NNW,339,0.0,1.0,84,0.00,,---,0.11,VWS V14.01,2013-01-18 04:17:00,
2013-01-17 22:19:00,35.4,31.1,30.48,NNW,339,0.0,1.0,84,0.00,,---,0.11,VWS V14.01,2013-01-18 04:19:00,
2013-01-17 22:20:00,35.4,31.1,30.48,NNW,339,0.0,1.0,84,0.00,,---,0.11,VWS V14.01,2013-01-18 04:20:00,
2013-01-17 22:21:00,35.4,31.1,30.48,NNW,339,0.0,1.0,84,0.00,,---,0.11,VWS V14.01,2013-01-18 04:21:00,
2013-01-17 22:22:00,35.3,31.0,30.48,NNW,339,0.0,1.0,84,0.00,,---,0.11,VWS V14.01,2013-01-18 04:22:00,
2013-01-17 22:24:00,35.3,31.0,30.48,NNW,339,0.0,1.0,84,0.00,,---,0.11,VWS V14.01,2013-01-18 04:24:00,
2013-01-17 22:25:00,35.3,31.0,30.48,NNW,339,0.0,1.0,84,0.00,,---,0.11,VWS V14.01,2013-01-18 04:25:00,
2013-01-17 22:26:00,35.3,31.0,30.48,NNW,339,0.0,1.0,84,0.00,,---,0.11,VWS V14.01,2013-01-18 04:26:00,
2013-01-17 22:27:00,35.2,30.9,30.48,NNW,339,0.0,1.0,84,0.00,,---,0.11,VWS V14.01,2013-01-18 04:27:00,
2013-01-17 22:29:00,35.2,30.9,30.48,NNW,339,1.0,1.0,84,0.00,,---,0.11,VWS V14.01,2013-01-18 04:29:00,
2013-01-17 22:30:00,35.2,30.9,30.48,NNW,339,0.0,1.0,84,0.00,,---,0.11,VWS V14.01,2013-01-18 04:30:00,
2013-01-17 22:31:00,35.1,30.8,30.48,NNW,339,0.0,0.0,84,0.00,,---,0.11,VWS V14.01,2013-01-18 04:31:00,
2013-01-17 22:32:00,35.1,30.8,30.48,North,8,0.0,0.0,84,0.00,,---,0.11,VWS V14.01,2013-01-18 04:32:00,
2013-01-17 22:34:00,35.0,30.4,30.48,North,7,0.0,0.0,83,0.00,,---,0.11,VWS V14.01,2013-01-18 04:34:00,
2013-01-17 22:35:00,35.0,30.4,30.48,West,273,0.0,0.0,83,0.00,,---,0.11,VWS V14.01,2013-01-18 04:35:00,
2013-01-17 22:36:00,34.9,30.3,30.48,West,273,0.0,0.0,83,0.00,,---,0.11,VWS V14.01,2013-01-18 04:36:00,
2013-01-17 22:37:00,34.9,30.3,30.48,West,273,0.0,0.0,83,0.00,,---,0.11,VWS V14.01,2013-01-18 04:37:00,
2013-01-17 22:40:00,34.7,30.1,30.48,West,273,0.0,0.0,83,0.00,,---,0.11,VWS V14.01,2013-01-18 04:40:00,
2013-01-17 22:41:00,34.5,29.9,30.48,West,273,0.0,0.0,83,0.00,,---,0.11,VWS V14.01,2013-01-18 04:41:00,
2013-01-17 22:42:00,34.4,29.8,30.48,West,273,0.0,0.0,83,0.00,,---,0.11,VWS V14.01,2013-01-18 04:42:00,
2013-01-17 22:45:00,34.2,29.9,30.48,West,273,0.0,0.0,84,0.00,,---,0.11,VWS V14.01,2013-01-18 04:45:00,
2013-01-17 22:46:00,34.1,29.8,30.48,West,273,0.0,0.0,84,0.00,,---,0.11,VWS V14.01,2013-01-18 04:46:00,
2013-01-17 22:47:00,34.0,30.0,30.48,West,273,0.0,0.0,85,0.00,,---,0.11,VWS V14.01,2013-01-18 04:47:00,
2013-01-17 22:50:00,34.0,30.0,30.48,West,273,0.0,0.0,85,0.00,,---,0.11,VWS V14.01,2013-01-18 04:50:00,
2013-01-17 22:51:00,34.0,30.0,30.48,West,273,0.0,0.0,85,0.00,,---,0.11,VWS V14.01,2013-01-18 04:51:00,
2013-01-17 22:53:00,34.0,30.0,30.48,West,273,0.0,0.0,85,0.00,,---,0.11,VWS V14.01,2013-01-18 04:53:00,
2013-01-17 22:55:00,33.9,29.9,30.48,West,273,0.0,0.0,85,0.00,,---,0.11,VWS V14.01,2013-01-18 04:55:00,
2013-01-17 22:56:00,33.9,29.9,30.48,West,273,0.0,0.0,85,0.00,,---,0.11,VWS V14.01,2013-01-18 04:56:00,
2013-01-17 22:58:00,33.7,29.7,30.48,West,273,0.0,0.0,85,0.00,,---,0.11,VWS V14.01,2013-01-18 04:58:00,
2013-01-17 23:00:00,33.6,29.6,30.48,West,273,0.0,0.0,85,0.00,,---,0.11,VWS V14.01,2013-01-18 05:00:00,
2013-01-17 23:01:00,33.4,29.4,30.48,West,273,0.0,0.0,85,0.00,,---,0.11,VWS V14.01,2013-01-18 05:01:00,
2013-01-17 23:02:00,33.3,29.3,30.48,West,273,0.0,0.0,85,0.00,,---,0.11,VWS V14.01,2013-01-18 05:02:00,
2013-01-17 23:05:00,33.1,29.4,30.48,West,273,0.0,0.0,86,0.00,,---,0.11,VWS V14.01,2013-01-18 05:05:00,
2013-01-17 23:06:00,33.0,29.3,30.48,West,273,0.0,0.0,86,0.00,,---,0.11,VWS V14.01,2013-01-18 05:06:00,
2013-01-17 23:07:00,32.9,29.2,30.48,West,273,0.0,0.0,86,0.00,,---,0.11,VWS V14.01,2013-01-18 05:07:00,
2013-01-17 23:10:00,32.8,29.1,30.48,West,273,0.0,0.0,86,0.00,,---,0.11,VWS V14.01,2013-01-18 05:10:00,
2013-01-17 23:12:00,32.7,29.0,30.48,West,273,0.0,0.0,86,0.00,,---,0.11,VWS V14.01,2013-01-18 05:12:00,
2013-01-17 23:15:00,32.6,28.9,30.48,West,273,0.0,0.0,86,0.00,,---,0.11,VWS V14.01,2013-01-18 05:15:00,
2013-01-17 23:17:00,32.5,28.8,30.48,West,273,0.0,0.0,86,0.00,,---,0.11,VWS V14.01,2013-01-18 05:17:00,
2013-01-17 23:18:00,32.5,28.8,30.48,West,273,0.0,0.0,86,0.00,,---,0.11,VWS V14.01,2013-01-18 05:18:00,
2013-01-17 23:20:00,32.4,29.0,30.48,West,273,0.0,0.0,87,0.00,,---,0.11,VWS V14.01,2013-01-18 05:20:00,
2013-01-17 23:22:00,32.4,29.0,30.48,West,273,0.0,0.0,87,0.00,,---,0.11,VWS V14.01,2013-01-18 05:22:00,
2013-01-17 23:23:00,32.3,28.9,30.48,West,273,0.0,0.0,87,0.00,,---,0.11,VWS V14.01,2013-01-18 05:23:00,
2013-01-17 23:25:00,32.3,28.9,30.48,West,273,0.0,0.0,87,0.00,,---,0.11,VWS V14.01,2013-01-18 05:25:00,
2013-01-17 23:26:00,32.3,28.9,30.48,West,273,0.0,0.0,87,0.00,,---,0.11,VWS V14.01,2013-01-18 05:26:00,
2013-01-17 23:27:00,32.3,28.9,30.48,West,273,0.0,0.0,87,0.00,,---,0.11,VWS V14.01,2013-01-18 05:27:00,
2013-01-17 23:28:00,32.3,28.9,30.48,West,273,0.0,1.0,87,0.00,,---,0.11,VWS V14.01,2013-01-18 05:28:00,
2013-01-17 23:30:00,32.4,29.0,30.48,West,275,0.0,1.0,87,0.00,,---,0.11,VWS V14.01,2013-01-18 05:30:00,
2013-01-17 23:31:00,32.5,29.1,30.47,North,357,1.0,1.0,87,0.00,,---,0.11,VWS V14.01,2013-01-18 05:31:00,
2013-01-17 23:32:00,32.5,28.8,30.47,North,357,0.0,1.0,86,0.00,,---,0.11,VWS V14.01,2013-01-18 05:32:00,
2013-01-17 23:33:00,32.7,29.0,30.48,North,358,0.0,1.0,86,0.00,,---,0.11,VWS V14.01,2013-01-18 05:33:00,
2013-01-17 23:35:00,32.9,29.2,30.48,North,357,0.0,1.0,86,0.00,,---,0.11,VWS V14.01,2013-01-18 05:35:00,
2013-01-17 23:36:00,32.9,29.2,30.47,North,357,0.0,1.0,86,0.00,,---,0.11,VWS V14.01,2013-01-18 05:36:00,
2013-01-17 23:37:00,32.9,28.9,30.48,North,357,0.0,1.0,85,0.00,,---,0.11,VWS V14.01,2013-01-18 05:37:00,
2013-01-17 23:38:00,33.0,29.0,30.48,North,354,0.0,1.0,85,0.00,,---,0.11,VWS V14.01,2013-01-18 05:38:00,
2013-01-17 23:40:00,33.1,29.1,30.48,NE,37,1.0,1.0,85,0.00,,---,0.11,VWS V14.01,2013-01-18 05:40:00,
2013-01-17 23:41:00,33.1,29.1,30.48,NE,37,0.0,1.0,85,0.00,,---,0.11,VWS V14.01,2013-01-18 05:41:00,
2013-01-17 23:42:00,33.1,28.8,30.48,North,8,1.0,2.0,84,0.00,,---,0.11,VWS V14.01,2013-01-18 05:42:00,
2013-01-17 23:43:00,33.2,28.9,30.48,North,8,0.0,2.0,84,0.00,,---,0.11,VWS V14.01,2013-01-18 05:43:00,
2013-01-17 23:45:00,33.4,29.1,30.48,North,1,0.0,2.0,84,0.00,,---,0.11,VWS V14.01,2013-01-18 05:45:00,
2013-01-17 23:46:00,33.5,29.2,30.48,North,1,0.0,0.0,84,0.00,,---,0.11,VWS V14.01,2013-01-18 05:46:00,
2013-01-17 23:47:00,33.5,28.9,30.48,North,1,0.0,0.0,83,0.00,,---,0.11,VWS V14.01,2013-01-18 05:47:00,
2013-01-17 23:48:00,33.6,29.0,30.48,North,1,0.0,0.0,83,0.00,,---,0.11,VWS V14.01,2013-01-18 05:48:00,
2013-01-17 23:51:00,33.6,29.0,30.48,North,359,0.0,1.0,83,0.00,,---,0.11,VWS V14.01,2013-01-18 05:51:00,
2013-01-17 23:53:00,33.6,28.7,30.48,North,359,0.0,1.0,82,0.00,,---,0.11,VWS V14.01,2013-01-18 05:53:00,
2013-01-17 23:56:00,33.4,28.5,30.48,North,359,0.0,1.0,82,0.00,,---,0.11,VWS V14.01,2013-01-18 05:56:00,
2013-01-17 23:58:00,33.4,28.5,30.48,North,359,0.0,1.0,82,0.00,,---,0.11,VWS V14.01,2013-01-18 05:58:00,